UAE005 OMDB-YPPH

Flight info

Callsign UAE005
Flight time 10h 23m
Altitude 37000
Route ANVIX L223 TARDI N629 GIDAN P570 KITAL L894 BIBGO DCT LAVOX DCT KADAP/N0492F390 DCT 0500S08730E DCT BEBIM DCT 15S100E 18S105E/N0487F410 DCT WONSA DCT CAR B469 TOPIR/N0488F400 L514 AVPAL Q38 JULIM
Aircraft A359/H-SDE2E3GHIJ3J4J5LM1ORWXY/LB1D1

Departure

Time 2026-05-05 11:45
Airport Dubai International Airport (OMDB)

Arrival

Time 2026-05-05 22:08
Airport Perth International Airport (YPPH)
Time Latitude Longitude Altitude Speed Heading
2026-05-05 11:39 25.24262 55.37520 27 ft 0 kts 211°
2026-05-05 11:41 25.24288 55.37537 26 ft 6 kts 211°
2026-05-05 11:41 25.24323 55.37561 25 ft 6 kts 211°
2026-05-05 11:42 25.24358 55.37553 25 ft 6 kts 123°
2026-05-05 11:42 25.24360 55.37551 27 ft 0 kts 123°
2026-05-05 11:42 25.24359 55.37552 27 ft 2 kts 123°
2026-05-05 11:43 25.24328 55.37604 27 ft 15 kts 123°
2026-05-05 11:43 25.24265 55.37741 27 ft 22 kts 86°
2026-05-05 11:43 25.24373 55.37853 28 ft 24 kts 34°
2026-05-05 11:43 25.24516 55.37962 31 ft 26 kts 34°
2026-05-05 11:44 25.24675 55.38076 31 ft 26 kts 32°
2026-05-05 11:44 25.24803 55.38030 31 ft 23 kts 303°
2026-05-05 11:44 25.24858 55.37934 31 ft 0 kts 301°
2026-05-05 11:44 25.24873 55.37907 32 ft 24 kts 301°
2026-05-05 11:45 25.25104 55.37490 33 ft 101 kts 302°
2026-05-05 11:45 25.25593 55.36611 31 ft 165 kts 301°
2026-05-05 11:45 25.26219 55.35453 634 ft 173 kts 304°
2026-05-05 11:45 25.26844 55.34315 1376 ft 180 kts 306°
2026-05-05 11:46 25.27569 55.33040 1720 ft 212 kts 305°
2026-05-05 11:46 25.28383 55.31594 2280 ft 228 kts 304°
2026-05-05 11:46 25.29086 55.30014 2701 ft 234 kts 288°
2026-05-05 11:46 25.29039 55.28204 2977 ft 243 kts 251°
2026-05-05 11:47 25.28377 55.26498 3467 ft 240 kts 243°
2026-05-05 11:47 25.27645 55.24842 3923 ft 240 kts 243°
2026-05-05 11:47 25.26909 55.23167 4314 ft 246 kts 243°
2026-05-05 11:47 25.26158 55.21439 4713 ft 250 kts 243°
2026-05-05 11:48 25.24541 55.18024 5642 ft 252 kts 228°
2026-05-05 11:48 25.23132 55.16914 6052 ft 252 kts 197°
2026-05-05 11:48 25.21387 55.16695 6346 ft 257 kts 175°
2026-05-05 11:49 25.19624 55.17035 6745 ft 258 kts 157°
2026-05-05 11:49 25.18135 55.18109 7153 ft 261 kts 132°
2026-05-05 11:49 25.17099 55.19801 7392 ft 272 kts 117°
2026-05-05 11:49 25.16223 55.21677 7799 ft 278 kts 116°
2026-05-05 11:50 25.15348 55.23569 8250 ft 282 kts 117°
2026-05-05 11:50 25.14437 55.25508 8703 ft 287 kts 117°
2026-05-05 11:50 25.13506 55.27473 9202 ft 291 kts 117°
2026-05-05 11:50 25.12559 55.29463 9692 ft 295 kts 118°
2026-05-05 11:51 25.11597 55.31467 10168 ft 297 kts 118°
2026-05-05 11:51 25.10622 55.33492 10657 ft 300 kts 118°
2026-05-05 11:51 25.09708 55.35574 11142 ft 303 kts 114°
2026-05-05 11:51 25.08850 55.37710 11635 ft 306 kts 114°
2026-05-05 11:52 25.07982 55.39871 12144 ft 309 kts 114°
2026-05-05 11:52 25.07099 55.42049 12655 ft 313 kts 114°
2026-05-05 11:52 25.06232 55.44277 13061 ft 320 kts 112°
2026-05-05 11:52 25.05367 55.46558 13552 ft 324 kts 112°
2026-05-05 11:53 25.04789 55.48080 13850 ft 325 kts 112°
2026-05-05 11:53 25.03906 55.50391 14285 ft 329 kts 112°
2026-05-05 11:53 25.03007 55.52733 14697 ft 334 kts 112°
2026-05-05 11:53 25.02064 55.55092 15144 ft 338 kts 117°
2026-05-05 11:54 25.00928 55.57367 15664 ft 338 kts 121°
2026-05-05 11:54 24.99723 55.59608 16103 ft 342 kts 121°
2026-05-05 11:54 24.98492 55.61876 16457 ft 350 kts 121°
2026-05-05 11:54 24.97222 55.64218 16652 ft 362 kts 121°
2026-05-05 11:55 24.95913 55.66636 16836 ft 373 kts 121°
2026-05-05 11:55 24.94559 55.69120 17032 ft 384 kts 122°
2026-05-05 11:55 24.93035 55.71587 17194 ft 394 kts 126°
2026-05-05 11:55 24.91400 55.74067 17338 ft 405 kts 127°
2026-05-05 11:56 24.89717 55.76597 17513 ft 414 kts 127°
2026-05-05 11:56 24.87999 55.79181 17695 ft 422 kts 127°
2026-05-05 11:56 24.86248 55.81816 17811 ft 431 kts 127°
2026-05-05 11:56 24.84483 55.84474 17974 ft 439 kts 126°
2026-05-05 11:57 24.82659 55.87205 18150 ft 444 kts 127°
2026-05-05 11:57 24.80809 55.89932 18503 ft 445 kts 127°
2026-05-05 11:57 24.78950 55.92650 18860 ft 445 kts 128°
2026-05-05 11:57 24.76898 55.95227 19071 ft 450 kts 134°
2026-05-05 11:58 24.74671 55.97668 19263 ft 454 kts 137°
2026-05-05 11:58 24.72358 56.00033 19626 ft 453 kts 138°
2026-05-05 11:58 24.70020 56.02364 19967 ft 455 kts 139°
2026-05-05 11:58 24.67671 56.04706 20312 ft 456 kts 138°
2026-05-05 11:59 24.65330 56.07061 20604 ft 458 kts 138°
2026-05-05 11:59 24.62978 56.09448 20889 ft 461 kts 138°
2026-05-05 11:59 24.60627 56.11850 21146 ft 464 kts 138°
2026-05-05 11:59 24.58264 56.14302 21444 ft 467 kts 135°
2026-05-05 12:00 24.56046 56.16911 21816 ft 468 kts 133°
2026-05-05 12:00 24.53874 56.19582 22165 ft 469 kts 132°
2026-05-05 12:00 24.51716 56.22297 22431 ft 473 kts 131°
2026-05-05 12:00 24.49594 56.25002 22722 ft 475 kts 131°
2026-05-05 12:01 24.47407 56.27800 22998 ft 478 kts 131°
2026-05-05 12:01 24.45242 56.30573 23336 ft 479 kts 131°
2026-05-05 12:01 24.43094 56.33318 23595 ft 481 kts 132°
2026-05-05 12:01 24.40899 56.36114 23762 ft 485 kts 132°
2026-05-05 12:02 24.38694 56.38918 23980 ft 487 kts 132°
2026-05-05 12:02 24.36472 56.41738 24230 ft 488 kts 132°
2026-05-05 12:02 24.34247 56.44560 24483 ft 490 kts 132°
2026-05-05 12:02 24.32011 56.47394 24736 ft 491 kts 132°
2026-05-05 12:03 24.29769 56.50234 24985 ft 494 kts 132°
2026-05-05 12:03 24.27587 56.53157 25244 ft 497 kts 129°
2026-05-05 12:03 24.25533 56.56213 25545 ft 499 kts 127°
2026-05-05 12:03 24.23527 56.59339 25817 ft 501 kts 126°
2026-05-05 12:04 24.21525 56.62486 26063 ft 504 kts 126°
2026-05-05 12:04 24.19531 56.65592 26362 ft 507 kts 127°
2026-05-05 12:04 24.17453 56.68788 26659 ft 509 kts 127°
2026-05-05 12:04 24.15401 56.71907 26953 ft 511 kts 127°
2026-05-05 12:05 24.13306 56.75066 27238 ft 514 kts 128°
2026-05-05 12:05 24.11195 56.78235 27516 ft 516 kts 128°
2026-05-05 12:05 24.09071 56.81416 27788 ft 519 kts 128°
2026-05-05 12:05 24.06935 56.84612 28062 ft 521 kts 128°
2026-05-05 12:06 24.04793 56.87817 28347 ft 523 kts 128°
2026-05-05 12:06 24.02642 56.91040 28601 ft 525 kts 128°
2026-05-05 12:06 24.00483 56.94272 28834 ft 528 kts 128°
2026-05-05 12:06 23.98308 56.97519 29077 ft 530 kts 128°
2026-05-05 12:07 23.96122 57.00778 29326 ft 532 kts 128°
2026-05-05 12:07 23.93932 57.04042 29550 ft 534 kts 128°
2026-05-05 12:07 23.91735 57.07315 29836 ft 534 kts 128°
2026-05-05 12:07 23.89537 57.10589 30136 ft 534 kts 128°
2026-05-05 12:08 23.87346 57.13858 30399 ft 534 kts 128°
2026-05-05 12:08 23.85143 57.17141 30604 ft 534 kts 128°
2026-05-05 12:08 23.82946 57.20408 30882 ft 534 kts 128°
2026-05-05 12:08 23.80746 57.23677 31173 ft 533 kts 128°
2026-05-05 12:09 23.78551 57.26937 31435 ft 533 kts 128°
2026-05-05 12:09 23.76383 57.30155 31670 ft 533 kts 128°
2026-05-05 12:09 23.74158 57.33454 31929 ft 533 kts 128°
2026-05-05 12:09 23.71964 57.36708 32185 ft 532 kts 128°
2026-05-05 12:10 23.69764 57.39896 32407 ft 532 kts 129°
2026-05-05 12:10 23.67471 57.43066 32623 ft 532 kts 130°
2026-05-05 12:10 23.65151 57.46210 32866 ft 531 kts 130°
2026-05-05 12:10 23.62831 57.49340 33131 ft 530 kts 130°
2026-05-05 12:11 23.60514 57.52475 33358 ft 530 kts 130°
2026-05-05 12:11 23.58206 57.55612 33574 ft 530 kts 130°
2026-05-05 12:11 23.55904 57.58756 33797 ft 530 kts 130°
2026-05-05 12:11 23.53608 57.61897 33954 ft 530 kts 130°
2026-05-05 12:12 23.51312 57.65043 34173 ft 529 kts 130°
2026-05-05 12:12 23.49025 57.68177 34380 ft 529 kts 130°
2026-05-05 12:12 23.46735 57.71313 34523 ft 529 kts 130°
2026-05-05 12:12 23.44447 57.74441 34735 ft 528 kts 130°
2026-05-05 12:13 23.42161 57.77564 34941 ft 526 kts 130°
2026-05-05 12:13 23.39881 57.80676 35147 ft 525 kts 130°
2026-05-05 12:13 23.37604 57.83782 35295 ft 525 kts 130°
2026-05-05 12:13 23.35356 57.86845 35481 ft 524 kts 130°
2026-05-05 12:14 23.33082 57.89942 35649 ft 523 kts 131°
2026-05-05 12:14 23.30784 57.93069 35775 ft 523 kts 131°
2026-05-05 12:14 23.28540 57.96121 35925 ft 522 kts 131°
2026-05-05 12:14 23.26273 57.99204 36071 ft 522 kts 131°
2026-05-05 12:15 23.24004 58.02291 36231 ft 521 kts 131°
2026-05-05 12:15 23.21839 58.05445 36434 ft 520 kts 127°
2026-05-05 12:15 23.19792 58.08689 36573 ft 520 kts 126°
2026-05-05 12:15 23.17790 58.11970 36716 ft 520 kts 126°
2026-05-05 12:16 23.13776 58.18537 36773 ft 524 kts 126°
2026-05-05 12:16 23.09666 58.25115 36772 ft 526 kts 127°
2026-05-05 12:17 23.05518 58.31668 36764 ft 527 kts 127°
2026-05-05 12:17 23.00815 58.37691 36769 ft 520 kts 142°
2026-05-05 12:18 22.94937 58.42185 36782 ft 516 kts 150°
2026-05-05 12:18 22.88820 58.46250 36781 ft 516 kts 152°
2026-05-05 12:19 22.82706 58.50233 36787 ft 516 kts 152°
2026-05-05 12:19 22.76557 58.54269 36786 ft 517 kts 151°
2026-05-05 12:20 22.70418 58.58324 36785 ft 517 kts 151°
2026-05-05 12:20 22.64277 58.62387 36788 ft 517 kts 151°
2026-05-05 12:21 22.58136 58.66443 36790 ft 517 kts 151°
2026-05-05 12:21 22.52000 58.70485 36800 ft 516 kts 151°
2026-05-05 12:22 22.45873 58.74520 36801 ft 515 kts 151°
2026-05-05 12:22 22.39749 58.78548 36802 ft 515 kts 151°
2026-05-05 12:23 22.33626 58.82573 36804 ft 515 kts 151°
2026-05-05 12:23 22.27507 58.86590 36808 ft 514 kts 151°
2026-05-05 12:24 22.21438 58.90571 36807 ft 514 kts 151°
2026-05-05 12:24 22.15329 58.94573 36807 ft 514 kts 151°
2026-05-05 12:25 22.09206 58.98581 36808 ft 514 kts 151°
2026-05-05 12:25 22.03091 59.02579 36807 ft 514 kts 151°
2026-05-05 12:26 21.96978 59.06573 36807 ft 514 kts 151°
2026-05-05 12:26 21.90855 59.10568 36807 ft 514 kts 151°
2026-05-05 12:27 21.84778 59.14530 36807 ft 514 kts 151°
2026-05-05 12:27 21.78663 59.18513 36804 ft 513 kts 150°
2026-05-05 12:28 21.72555 59.22487 36801 ft 512 kts 151°
2026-05-05 12:28 21.66452 59.26453 36802 ft 512 kts 151°
2026-05-05 12:29 21.60337 59.30425 36799 ft 512 kts 151°
2026-05-05 12:29 21.54239 59.34381 36799 ft 512 kts 150°
2026-05-05 12:30 21.48183 59.38309 36796 ft 511 kts 150°
2026-05-05 12:30 21.42091 59.42256 36796 ft 511 kts 150°
2026-05-05 12:31 21.35998 59.46199 36795 ft 511 kts 150°
2026-05-05 12:31 21.29908 59.50136 36791 ft 511 kts 150°
2026-05-05 12:32 21.23825 59.54067 36793 ft 510 kts 150°
2026-05-05 12:32 21.17748 59.57987 36792 ft 510 kts 150°
2026-05-05 12:33 21.11669 59.61903 36795 ft 510 kts 150°
2026-05-05 12:33 21.05627 59.65792 36797 ft 510 kts 150°
2026-05-05 12:34 20.99552 59.69699 36792 ft 509 kts 150°
2026-05-05 12:34 20.93481 59.73602 36794 ft 509 kts 150°
2026-05-05 12:35 20.87403 59.77498 36794 ft 509 kts 150°
2026-05-05 12:35 20.81319 59.81394 36792 ft 509 kts 150°
2026-05-05 12:36 20.75244 59.85283 36791 ft 509 kts 150°
2026-05-05 12:36 20.69208 59.89145 36799 ft 508 kts 150°
2026-05-05 12:37 20.63134 59.93026 36792 ft 509 kts 150°
2026-05-05 12:37 20.57052 59.96909 36799 ft 509 kts 150°
2026-05-05 12:38 20.50975 60.00785 36799 ft 509 kts 150°
2026-05-05 12:38 20.44894 60.04660 36796 ft 508 kts 150°
2026-05-05 12:39 20.38824 60.08525 36802 ft 508 kts 150°
2026-05-05 12:39 20.32753 60.12387 36802 ft 508 kts 150°
2026-05-05 12:40 20.26688 60.16241 36801 ft 507 kts 150°
2026-05-05 12:40 20.20631 60.20086 36805 ft 507 kts 150°
2026-05-05 12:41 20.15588 60.23286 36802 ft 507 kts 150°
2026-05-05 12:41 20.08536 60.27755 36807 ft 508 kts 150°
2026-05-05 12:42 20.03681 60.31357 36811 ft 508 kts 141°
2026-05-05 12:42 19.98365 60.36242 36807 ft 508 kts 139°
2026-05-05 12:43 19.93113 60.41256 36811 ft 508 kts 139°
2026-05-05 12:43 19.87856 60.46288 36811 ft 508 kts 139°
2026-05-05 12:44 19.82591 60.51301 36811 ft 508 kts 139°
2026-05-05 12:44 19.77322 60.56301 36813 ft 508 kts 139°
2026-05-05 12:45 19.72052 60.61293 36811 ft 508 kts 139°
2026-05-05 12:45 19.66761 60.66301 36812 ft 508 kts 139°
2026-05-05 12:46 19.61509 60.71269 36815 ft 508 kts 139°
2026-05-05 12:46 19.56236 60.76253 36815 ft 508 kts 139°
2026-05-05 12:47 19.50949 60.81244 36815 ft 509 kts 139°
2026-05-05 12:47 19.45656 60.86237 36815 ft 508 kts 139°
2026-05-05 12:48 19.40369 60.91221 36813 ft 508 kts 139°
2026-05-05 12:48 19.35078 60.96202 36813 ft 509 kts 139°
2026-05-05 12:49 19.29775 61.01191 36816 ft 509 kts 139°
2026-05-05 12:49 19.24516 61.06135 36815 ft 508 kts 139°
2026-05-05 12:50 19.19228 61.11100 36819 ft 509 kts 139°
2026-05-05 12:50 19.13932 61.16069 36820 ft 508 kts 139°
2026-05-05 12:51 19.08631 61.21038 36818 ft 508 kts 139°
2026-05-05 12:51 19.03344 61.25990 36818 ft 508 kts 139°
2026-05-05 12:52 18.98202 61.30801 36821 ft 509 kts 139°
2026-05-05 12:52 18.94682 61.34093 36825 ft 509 kts 139°
2026-05-05 12:53 18.89387 61.39040 36823 ft 508 kts 139°
2026-05-05 12:53 18.84090 61.43986 36827 ft 508 kts 139°
2026-05-05 12:54 18.76127 61.51411 36825 ft 509 kts 139°
2026-05-05 12:55 18.70827 61.56348 36824 ft 507 kts 139°
2026-05-05 12:55 18.65565 61.61246 36824 ft 508 kts 139°
2026-05-05 12:56 18.60256 61.66182 36824 ft 509 kts 139°
2026-05-05 12:56 18.54948 61.71114 36828 ft 508 kts 139°
2026-05-05 12:57 18.49648 61.76034 36829 ft 508 kts 139°
2026-05-05 12:57 18.44343 61.80954 36830 ft 509 kts 139°
2026-05-05 12:58 18.39042 61.85868 36830 ft 508 kts 139°
2026-05-05 12:58 18.33748 61.90769 36828 ft 506 kts 139°
2026-05-05 12:59 18.28451 61.95670 36832 ft 507 kts 139°
2026-05-05 12:59 18.23142 62.00577 36830 ft 507 kts 139°
2026-05-05 13:00 18.15199 62.07911 36837 ft 505 kts 139°
2026-05-05 13:01 18.04601 62.17683 36833 ft 507 kts 139°
2026-05-05 13:01 17.99339 62.22528 36837 ft 506 kts 139°
2026-05-05 13:02 17.94051 62.27394 36838 ft 506 kts 139°
2026-05-05 13:02 17.88754 62.32264 36838 ft 507 kts 139°
2026-05-05 13:03 17.83440 62.37145 36838 ft 506 kts 139°
2026-05-05 13:03 17.78146 62.42004 36840 ft 505 kts 139°
2026-05-05 13:04 17.72851 62.46860 36840 ft 506 kts 139°
2026-05-05 13:04 17.67547 62.51721 36839 ft 506 kts 139°
2026-05-05 13:05 17.62281 62.56542 36840 ft 505 kts 139°
2026-05-05 13:05 17.56993 62.61379 36841 ft 505 kts 139°
2026-05-05 13:06 17.51679 62.66238 36844 ft 506 kts 139°
2026-05-05 13:06 17.46371 62.71085 36842 ft 505 kts 139°
2026-05-05 13:07 17.41102 62.75894 36842 ft 505 kts 139°
2026-05-05 13:07 17.35803 62.80726 36843 ft 505 kts 139°
2026-05-05 13:08 17.30500 62.85558 36843 ft 506 kts 139°
2026-05-05 13:08 17.25191 62.90392 36844 ft 506 kts 139°
2026-05-05 13:09 17.19892 62.95213 36842 ft 505 kts 139°
2026-05-05 13:09 17.14586 63.00036 36842 ft 505 kts 139°
2026-05-05 13:10 17.09273 63.04861 36842 ft 505 kts 139°
2026-05-05 13:10 17.04003 63.09645 36848 ft 504 kts 139°
2026-05-05 13:11 16.98699 63.14434 36849 ft 504 kts 140°
2026-05-05 13:11 16.93295 63.19123 36849 ft 506 kts 141°
2026-05-05 13:12 16.87859 63.23791 36846 ft 505 kts 141°
2026-05-05 13:12 16.82440 63.28466 36853 ft 505 kts 140°
2026-05-05 13:13 16.77034 63.33146 36855 ft 505 kts 140°
2026-05-05 13:13 16.71663 63.37796 36854 ft 506 kts 140°
2026-05-05 13:14 16.66237 63.42490 36853 ft 506 kts 140°
2026-05-05 13:14 16.60822 63.47170 36856 ft 505 kts 140°
2026-05-05 13:15 16.55413 63.51841 36855 ft 505 kts 140°
2026-05-05 13:15 16.50003 63.56508 36853 ft 505 kts 140°
2026-05-05 13:16 16.44577 63.61186 36852 ft 506 kts 140°
2026-05-05 13:16 16.39190 63.65828 36853 ft 505 kts 140°
2026-05-05 13:17 16.33779 63.70487 36854 ft 504 kts 140°
2026-05-05 13:17 16.28365 63.75144 36854 ft 505 kts 140°
2026-05-05 13:18 16.22949 63.79801 36856 ft 505 kts 140°
2026-05-05 13:18 16.17538 63.84448 36857 ft 504 kts 140°
2026-05-05 13:19 16.12136 63.89085 36854 ft 503 kts 140°
2026-05-05 13:19 16.06733 63.93720 36853 ft 504 kts 140°
2026-05-05 13:20 16.01309 63.98369 36853 ft 504 kts 140°
2026-05-05 13:20 15.95896 64.03005 36854 ft 503 kts 140°
2026-05-05 13:21 15.90499 64.07625 36856 ft 502 kts 140°
2026-05-05 13:21 15.85098 64.12244 36859 ft 503 kts 140°
2026-05-05 13:22 15.79716 64.16844 36860 ft 504 kts 140°
2026-05-05 13:22 15.74305 64.21465 36860 ft 503 kts 140°
2026-05-05 13:23 15.68905 64.26074 36859 ft 502 kts 140°
2026-05-05 13:23 15.63511 64.30675 36859 ft 502 kts 140°
2026-05-05 13:24 15.58099 64.35287 36859 ft 502 kts 140°
2026-05-05 13:24 15.52725 64.39863 36859 ft 502 kts 140°
2026-05-05 13:25 15.47321 64.44463 36858 ft 502 kts 140°
2026-05-05 13:25 15.41927 64.49050 36862 ft 501 kts 140°
2026-05-05 13:26 15.36525 64.53641 36862 ft 502 kts 140°
2026-05-05 13:26 15.31121 64.58231 36861 ft 502 kts 140°
2026-05-05 13:27 15.25725 64.62810 36862 ft 501 kts 140°
2026-05-05 13:27 15.20365 64.67356 36865 ft 501 kts 140°
2026-05-05 13:28 15.14968 64.71930 36864 ft 501 kts 140°
2026-05-05 13:28 15.09577 64.76497 36865 ft 500 kts 140°
2026-05-05 13:29 15.04197 64.81050 36865 ft 500 kts 140°
2026-05-05 13:29 14.99717 64.84840 36864 ft 500 kts 140°
2026-05-05 13:30 14.94337 64.89388 36865 ft 500 kts 140°
2026-05-05 13:30 14.88948 64.93941 36865 ft 500 kts 140°
2026-05-05 13:31 14.83564 64.98486 36861 ft 499 kts 140°
2026-05-05 13:31 14.78188 65.03022 36865 ft 498 kts 140°
2026-05-05 13:32 14.72843 65.07528 36864 ft 498 kts 140°
2026-05-05 13:32 14.67469 65.12056 36864 ft 498 kts 140°
2026-05-05 13:33 14.62092 65.16584 36867 ft 498 kts 140°
2026-05-05 13:33 14.56719 65.21106 36868 ft 498 kts 140°
2026-05-05 13:34 14.51354 65.25614 36867 ft 497 kts 140°
2026-05-05 13:34 14.45987 65.30120 36867 ft 497 kts 140°
2026-05-05 13:35 14.40620 65.34624 36867 ft 497 kts 140°
2026-05-05 13:35 14.35261 65.39119 36867 ft 497 kts 140°
2026-05-05 13:36 14.29890 65.43622 36867 ft 497 kts 140°
2026-05-05 13:36 14.24566 65.48082 36867 ft 496 kts 140°
2026-05-05 13:37 14.19213 65.52563 36867 ft 495 kts 140°
2026-05-05 13:37 14.13867 65.57036 36867 ft 495 kts 140°
2026-05-05 13:38 14.08518 65.61508 36865 ft 495 kts 140°
2026-05-05 13:38 14.03169 65.65978 36868 ft 496 kts 140°
2026-05-05 13:39 13.97813 65.70451 36867 ft 496 kts 140°
2026-05-05 13:39 13.92456 65.74922 36872 ft 495 kts 140°
2026-05-05 13:40 13.87097 65.79392 36873 ft 495 kts 140°
2026-05-05 13:40 13.81733 65.83863 36873 ft 495 kts 140°
2026-05-05 13:41 13.76402 65.88304 36873 ft 496 kts 140°
2026-05-05 13:41 13.71038 65.92770 36873 ft 496 kts 140°
2026-05-05 13:42 13.65679 65.97229 36872 ft 495 kts 140°
2026-05-05 13:42 13.60330 66.01677 36873 ft 495 kts 140°
2026-05-05 13:43 13.54968 66.06133 36873 ft 495 kts 140°
2026-05-05 13:43 13.49610 66.10583 36873 ft 495 kts 140°
2026-05-05 13:44 13.44254 66.15029 36872 ft 495 kts 140°
2026-05-05 13:44 13.38935 66.19441 36872 ft 494 kts 140°
2026-05-05 13:45 13.33588 66.23874 36872 ft 493 kts 140°
2026-05-05 13:45 13.28237 66.28307 36876 ft 494 kts 140°
2026-05-05 13:46 13.22883 66.32742 36875 ft 494 kts 140°
2026-05-05 13:46 13.17535 66.37168 36875 ft 494 kts 140°
2026-05-05 13:47 13.12182 66.41595 36875 ft 493 kts 141°
2026-05-05 13:47 13.06837 66.46014 36875 ft 494 kts 140°
2026-05-05 13:48 13.01518 66.50409 36873 ft 494 kts 140°
2026-05-05 13:48 12.96164 66.54829 36873 ft 494 kts 140°
2026-05-05 13:49 12.90816 66.59243 36875 ft 494 kts 140°
2026-05-05 13:49 12.85467 66.63655 36875 ft 494 kts 140°
2026-05-05 13:50 12.80111 66.68070 36875 ft 494 kts 140°
2026-05-05 13:50 12.74751 66.72486 36876 ft 494 kts 140°
2026-05-05 13:51 12.69389 66.76901 36875 ft 494 kts 140°
2026-05-05 13:51 12.64028 66.81313 36875 ft 494 kts 140°
2026-05-05 13:52 12.58667 66.85722 36875 ft 494 kts 140°
2026-05-05 13:52 12.53302 66.90133 36875 ft 494 kts 140°
2026-05-05 13:53 12.47938 66.94539 36876 ft 494 kts 140°
2026-05-05 13:53 12.42609 66.98915 36875 ft 494 kts 140°
2026-05-05 13:54 12.37249 67.03314 36878 ft 494 kts 140°
2026-05-05 13:54 12.31887 67.07712 36878 ft 494 kts 140°
2026-05-05 13:55 12.26524 67.12109 36878 ft 494 kts 140°
2026-05-05 13:55 12.21162 67.16503 36878 ft 494 kts 140°
2026-05-05 13:56 12.15800 67.20894 36879 ft 494 kts 140°
2026-05-05 13:56 12.10434 67.25286 36878 ft 494 kts 140°
2026-05-05 13:57 12.05072 67.29672 36881 ft 494 kts 140°
2026-05-05 13:57 11.99712 67.34054 36881 ft 494 kts 140°
2026-05-05 13:58 11.94342 67.38444 36881 ft 494 kts 140°
2026-05-05 13:58 11.88977 67.42828 36881 ft 494 kts 140°
2026-05-05 13:59 11.80956 67.49376 36881 ft 494 kts 140°
2026-05-05 14:00 11.73816 67.55201 36884 ft 494 kts 140°
2026-05-05 14:00 11.67545 67.60315 36884 ft 494 kts 140°
2026-05-05 14:01 11.62176 67.64690 36881 ft 494 kts 140°
2026-05-05 14:01 11.56803 67.69066 36881 ft 494 kts 140°
2026-05-05 14:02 11.51440 67.73433 36881 ft 494 kts 140°
2026-05-05 14:02 11.46069 67.77803 36881 ft 494 kts 140°
2026-05-05 14:03 11.40731 67.82144 36881 ft 494 kts 140°
2026-05-05 14:03 11.35354 67.86516 36881 ft 494 kts 140°
2026-05-05 14:04 11.29982 67.90881 36883 ft 494 kts 140°
2026-05-05 14:04 11.24608 67.95244 36881 ft 494 kts 140°
2026-05-05 14:05 11.19229 67.99611 36884 ft 494 kts 140°
2026-05-05 14:05 11.13857 68.03969 36883 ft 493 kts 140°
2026-05-05 14:06 11.08526 68.08291 36884 ft 492 kts 140°
2026-05-05 14:06 11.03167 68.12635 36884 ft 492 kts 140°
2026-05-05 14:07 10.97805 68.16979 36881 ft 492 kts 140°
2026-05-05 14:07 10.92441 68.21323 36879 ft 492 kts 140°
2026-05-05 14:08 10.87079 68.25662 36881 ft 493 kts 140°
2026-05-05 14:08 10.81708 68.30007 36881 ft 493 kts 140°
2026-05-05 14:09 10.76342 68.34347 36881 ft 493 kts 140°
2026-05-05 14:09 10.71011 68.38655 36881 ft 493 kts 140°
2026-05-05 14:10 10.65638 68.42996 36881 ft 493 kts 140°
2026-05-05 14:10 10.60270 68.47330 36881 ft 493 kts 140°
2026-05-05 14:11 10.54893 68.51670 36885 ft 493 kts 140°
2026-05-05 14:11 10.49518 68.56006 36881 ft 494 kts 141°
2026-05-05 14:12 10.44130 68.60351 36881 ft 495 kts 140°
2026-05-05 14:12 10.38770 68.64671 36881 ft 494 kts 141°
2026-05-05 14:13 10.33379 68.69014 36884 ft 494 kts 140°
2026-05-05 14:13 10.27993 68.73351 36878 ft 494 kts 140°
2026-05-05 14:14 10.22606 68.77687 36881 ft 494 kts 140°
2026-05-05 14:14 10.17213 68.82026 36881 ft 494 kts 141°
2026-05-05 14:15 10.11825 68.86359 36874 ft 493 kts 141°
2026-05-05 14:15 10.06458 68.90673 36876 ft 490 kts 141°
2026-05-05 14:16 10.01150 68.94937 36873 ft 489 kts 141°
2026-05-05 14:16 9.95814 68.99223 36873 ft 489 kts 141°
2026-05-05 14:17 9.90476 69.03509 36875 ft 489 kts 141°
2026-05-05 14:17 9.85136 69.07794 36876 ft 490 kts 141°
2026-05-05 14:18 9.80690 69.11360 36875 ft 489 kts 141°
2026-05-05 14:18 9.75355 69.15638 36875 ft 489 kts 141°
2026-05-05 14:19 9.70025 69.19912 36875 ft 489 kts 141°
2026-05-05 14:19 9.64684 69.24185 36876 ft 489 kts 141°
2026-05-05 14:20 9.59328 69.28468 36872 ft 491 kts 141°
2026-05-05 14:20 9.53972 69.32750 36872 ft 490 kts 141°
2026-05-05 14:21 9.48619 69.37029 36873 ft 490 kts 141°
2026-05-05 14:21 9.43275 69.41299 36873 ft 488 kts 141°
2026-05-05 14:22 9.37939 69.45562 36875 ft 488 kts 141°
2026-05-05 14:22 9.32629 69.49802 36875 ft 487 kts 141°
2026-05-05 14:23 9.27299 69.54056 36876 ft 488 kts 141°
2026-05-05 14:23 9.21973 69.58304 36877 ft 488 kts 141°
2026-05-05 14:24 9.16625 69.62569 36874 ft 489 kts 141°
2026-05-05 14:24 9.11281 69.66830 36872 ft 489 kts 141°
2026-05-05 14:25 9.05931 69.71094 36871 ft 489 kts 141°
2026-05-05 14:25 9.00592 69.75346 36873 ft 488 kts 141°
2026-05-05 14:26 8.95292 69.79567 36873 ft 488 kts 141°
2026-05-05 14:26 8.89945 69.83822 36872 ft 489 kts 141°
2026-05-05 14:27 8.84584 69.88087 36874 ft 493 kts 141°
2026-05-05 14:27 8.79167 69.92396 36872 ft 496 kts 140°
2026-05-05 14:28 8.73741 69.96710 36874 ft 496 kts 141°
2026-05-05 14:28 8.68346 70.00997 36872 ft 496 kts 140°
2026-05-05 14:29 8.62924 70.05303 36873 ft 496 kts 140°
2026-05-05 14:29 8.57491 70.09618 36873 ft 496 kts 140°
2026-05-05 14:30 8.52065 70.13926 36875 ft 496 kts 140°
2026-05-05 14:30 8.46636 70.18233 36875 ft 495 kts 140°
2026-05-05 14:31 8.41250 70.22505 36869 ft 495 kts 140°
2026-05-05 14:31 8.35831 70.26802 36871 ft 495 kts 140°
2026-05-05 14:32 8.30415 70.31096 36869 ft 495 kts 140°
2026-05-05 14:32 8.24994 70.35391 36869 ft 495 kts 140°
2026-05-05 14:33 8.19567 70.39689 36870 ft 495 kts 140°
2026-05-05 14:33 8.14186 70.43950 36872 ft 494 kts 140°
2026-05-05 14:34 8.08786 70.48224 36872 ft 494 kts 140°
2026-05-05 14:34 8.03377 70.52504 36872 ft 493 kts 140°
2026-05-05 14:35 7.97970 70.56781 36872 ft 493 kts 141°
2026-05-05 14:35 7.92576 70.61046 36872 ft 492 kts 141°
2026-05-05 14:36 7.87185 70.65307 36875 ft 492 kts 140°
2026-05-05 14:36 7.81837 70.69532 36873 ft 491 kts 140°
2026-05-05 14:37 7.76463 70.73778 36873 ft 490 kts 141°
2026-05-05 14:37 7.71090 70.78020 36873 ft 491 kts 140°
2026-05-05 14:38 7.65708 70.82268 36872 ft 490 kts 140°
2026-05-05 14:38 7.60329 70.86513 36873 ft 491 kts 140°
2026-05-05 14:39 7.54955 70.90753 36873 ft 490 kts 141°
2026-05-05 14:39 7.49924 70.95351 36873 ft 488 kts 129°
2026-05-05 14:40 7.46014 71.00915 36872 ft 487 kts 122°
2026-05-05 14:40 7.42413 71.06644 36872 ft 487 kts 121°
2026-05-05 14:41 7.38830 71.12438 36873 ft 487 kts 121°
2026-05-05 14:41 7.35225 71.18226 36873 ft 487 kts 121°
2026-05-05 14:42 7.31604 71.24004 36874 ft 487 kts 121°
2026-05-05 14:42 7.27982 71.29771 36872 ft 487 kts 121°
2026-05-05 14:43 7.24380 71.35506 36872 ft 487 kts 121°
2026-05-05 14:43 7.20751 71.41282 36875 ft 487 kts 121°
2026-05-05 14:44 7.17130 71.47046 36872 ft 487 kts 121°
2026-05-05 14:44 7.13508 71.52807 36873 ft 487 kts 121°
2026-05-05 14:45 7.09888 71.58564 36874 ft 487 kts 121°
2026-05-05 14:45 7.06261 71.64330 36872 ft 487 kts 122°
2026-05-05 14:46 7.02632 71.70099 36873 ft 487 kts 122°
2026-05-05 14:46 6.99005 71.75860 36874 ft 487 kts 122°
2026-05-05 14:47 6.95376 71.81624 36876 ft 487 kts 122°
2026-05-05 14:47 6.91766 71.87354 36875 ft 487 kts 122°
2026-05-05 14:48 6.88138 71.93112 36877 ft 487 kts 122°
2026-05-05 14:48 6.84510 71.98868 36875 ft 486 kts 122°
2026-05-05 14:49 6.80884 72.04618 36876 ft 486 kts 122°
2026-05-05 14:49 6.77266 72.10354 36878 ft 485 kts 122°
2026-05-05 14:50 6.73645 72.16092 36878 ft 485 kts 122°
2026-05-05 14:50 6.70025 72.21828 36878 ft 485 kts 122°
2026-05-05 14:51 6.66431 72.27521 36878 ft 485 kts 122°
2026-05-05 14:51 6.62810 72.33254 36878 ft 485 kts 122°
2026-05-05 14:52 6.59193 72.38978 36879 ft 485 kts 122°
2026-05-05 14:52 6.55569 72.44712 36879 ft 485 kts 122°
2026-05-05 14:53 6.51944 72.50445 36878 ft 485 kts 122°
2026-05-05 14:53 6.48316 72.56182 36878 ft 485 kts 122°
2026-05-05 14:54 6.44695 72.61907 36882 ft 485 kts 122°
2026-05-05 14:54 6.41073 72.67629 36881 ft 485 kts 122°
2026-05-05 14:55 6.37476 72.73312 36881 ft 485 kts 122°
2026-05-05 14:55 6.33854 72.79032 36880 ft 485 kts 122°
2026-05-05 14:56 6.30228 72.84756 36881 ft 485 kts 122°
2026-05-05 14:56 6.26604 72.90476 36881 ft 485 kts 122°
2026-05-05 14:57 6.22976 72.96200 36881 ft 485 kts 122°
2026-05-05 14:57 6.19354 73.01912 36881 ft 484 kts 122°
2026-05-05 14:58 6.15736 73.07617 36880 ft 484 kts 122°
2026-05-05 14:58 6.12116 73.13323 36875 ft 484 kts 122°
2026-05-05 14:59 6.08497 73.19025 36882 ft 484 kts 122°
2026-05-05 14:59 6.04874 73.24733 36878 ft 484 kts 122°
2026-05-05 15:00 6.01866 73.29471 36881 ft 484 kts 122°
2026-05-05 15:00 5.97627 73.36145 36886 ft 485 kts 122°
2026-05-05 15:01 5.93988 73.41871 36881 ft 486 kts 122°
2026-05-05 15:01 5.90366 73.47571 36881 ft 486 kts 122°
2026-05-05 15:02 5.86725 73.53299 36881 ft 486 kts 122°
2026-05-05 15:02 5.83085 73.59022 36882 ft 486 kts 121°
2026-05-05 15:03 5.79452 73.64734 36881 ft 484 kts 121°
2026-05-05 15:03 5.75854 73.70389 36881 ft 483 kts 122°
2026-05-05 15:04 5.72230 73.76083 36883 ft 483 kts 122°
2026-05-05 15:04 5.68608 73.81773 36884 ft 483 kts 122°
2026-05-05 15:05 5.63176 73.90302 36884 ft 483 kts 122°
2026-05-05 15:06 5.59555 73.95985 36884 ft 483 kts 122°
2026-05-05 15:06 5.56545 74.00710 36882 ft 483 kts 122°
2026-05-05 15:07 5.52919 74.06398 36881 ft 484 kts 122°
2026-05-05 15:07 5.49290 74.12090 36879 ft 484 kts 122°
2026-05-05 15:08 5.45661 74.17780 36882 ft 485 kts 122°
2026-05-05 15:08 5.42027 74.23476 36888 ft 485 kts 122°
2026-05-05 15:09 5.38389 74.29178 36885 ft 485 kts 122°
2026-05-05 15:09 5.34748 74.34883 36886 ft 485 kts 122°
2026-05-05 15:10 5.31128 74.40552 36886 ft 485 kts 122°
2026-05-05 15:10 5.27487 74.46254 36887 ft 486 kts 122°
2026-05-05 15:11 5.23841 74.51962 36882 ft 486 kts 122°
2026-05-05 15:11 5.20195 74.57670 36885 ft 486 kts 122°
2026-05-05 15:12 5.16544 74.63382 36888 ft 486 kts 122°
2026-05-05 15:12 5.12894 74.69091 36887 ft 486 kts 122°
2026-05-05 15:13 5.09241 74.74806 36885 ft 487 kts 122°
2026-05-05 15:13 5.05578 74.80533 36887 ft 487 kts 122°
2026-05-05 15:14 5.01950 74.86205 36889 ft 487 kts 122°
2026-05-05 15:14 4.98292 74.91921 36888 ft 487 kts 122°
2026-05-05 15:15 4.94629 74.97644 36890 ft 486 kts 122°
2026-05-05 15:15 4.90972 75.03355 36894 ft 487 kts 122°
2026-05-05 15:16 4.87309 75.09077 36887 ft 487 kts 122°
2026-05-05 15:16 4.83651 75.14787 36892 ft 486 kts 122°
2026-05-05 15:17 4.79991 75.20501 36891 ft 487 kts 122°
2026-05-05 15:17 4.76336 75.26203 36894 ft 486 kts 122°
2026-05-05 15:18 4.72684 75.31902 36898 ft 487 kts 122°
2026-05-05 15:18 4.69027 75.37606 36897 ft 485 kts 122°
2026-05-05 15:19 4.65377 75.43298 36897 ft 486 kts 122°
2026-05-05 15:19 4.61717 75.49004 36902 ft 487 kts 122°
2026-05-05 15:20 4.58059 75.54706 36901 ft 486 kts 122°
2026-05-05 15:20 4.54419 75.60377 36897 ft 488 kts 122°
2026-05-05 15:21 4.50757 75.66084 36897 ft 485 kts 122°
2026-05-05 15:21 4.47101 75.71778 36897 ft 486 kts 122°
2026-05-05 15:22 4.43436 75.77485 36898 ft 487 kts 122°
2026-05-05 15:22 4.39779 75.83180 36903 ft 486 kts 122°
2026-05-05 15:23 4.36106 75.88897 36895 ft 488 kts 122°
2026-05-05 15:23 4.32437 75.94607 36897 ft 486 kts 122°
2026-05-05 15:24 4.28791 76.00281 36904 ft 488 kts 122°
2026-05-05 15:24 4.25114 76.06000 36900 ft 487 kts 122°
2026-05-05 15:25 4.21451 76.11698 36902 ft 486 kts 122°
2026-05-05 15:25 4.17779 76.17408 36902 ft 487 kts 122°
2026-05-05 15:26 4.14116 76.23102 36904 ft 485 kts 122°
2026-05-05 15:26 4.10457 76.28790 36904 ft 486 kts 122°
2026-05-05 15:27 4.06791 76.34486 36902 ft 486 kts 122°
2026-05-05 15:27 4.03156 76.40135 36903 ft 486 kts 122°
2026-05-05 15:28 3.99486 76.45835 36900 ft 486 kts 122°
2026-05-05 15:28 3.95827 76.51518 36905 ft 485 kts 122°
2026-05-05 15:29 3.92170 76.57198 36906 ft 485 kts 122°
2026-05-05 15:29 3.88508 76.62883 36906 ft 485 kts 122°
2026-05-05 15:30 3.84875 76.68522 36905 ft 485 kts 122°
2026-05-05 15:30 3.81221 76.74193 36904 ft 485 kts 122°
2026-05-05 15:31 3.77563 76.79870 36905 ft 484 kts 122°
2026-05-05 15:31 3.73908 76.85540 36904 ft 485 kts 122°
2026-05-05 15:32 3.70252 76.91210 36900 ft 485 kts 122°
2026-05-05 15:32 3.66591 76.96888 36904 ft 485 kts 122°
2026-05-05 15:33 3.62952 77.02530 36905 ft 485 kts 122°
2026-05-05 15:33 3.59288 77.08210 36906 ft 485 kts 122°
2026-05-05 15:34 3.55628 77.13883 36902 ft 485 kts 122°
2026-05-05 15:34 3.51965 77.19559 36903 ft 485 kts 122°
2026-05-05 15:35 3.48307 77.25228 36905 ft 485 kts 121°
2026-05-05 15:35 3.44648 77.30895 36906 ft 483 kts 121°
2026-05-05 15:36 3.41003 77.36542 36915 ft 483 kts 121°
2026-05-05 15:36 3.37354 77.42192 36905 ft 483 kts 121°
2026-05-05 15:37 3.33705 77.47843 36906 ft 483 kts 121°
2026-05-05 15:37 3.30058 77.53488 36907 ft 483 kts 121°
2026-05-05 15:38 3.26438 77.59092 36909 ft 483 kts 121°
2026-05-05 15:38 3.22790 77.64737 36908 ft 482 kts 121°
2026-05-05 15:39 3.19153 77.70366 36907 ft 481 kts 121°
2026-05-05 15:39 3.15515 77.75994 36906 ft 481 kts 121°
2026-05-05 15:40 3.11875 77.81626 36909 ft 481 kts 121°
2026-05-05 15:40 3.08252 77.87229 36909 ft 481 kts 121°
2026-05-05 15:41 3.04609 77.92864 36908 ft 481 kts 121°
2026-05-05 15:41 3.00966 77.98487 36905 ft 481 kts 121°
2026-05-05 15:42 2.96914 78.03815 36906 ft 481 kts 126°
2026-05-05 15:42 2.92720 78.09029 36907 ft 481 kts 127°
2026-05-05 15:43 2.88503 78.14220 36908 ft 481 kts 127°
2026-05-05 15:43 2.84319 78.19376 36907 ft 481 kts 127°
2026-05-05 15:44 2.80105 78.24580 36911 ft 480 kts 127°
2026-05-05 15:44 2.75902 78.29773 36912 ft 480 kts 127°
2026-05-05 15:45 2.71693 78.34974 36905 ft 480 kts 127°
2026-05-05 15:45 2.67483 78.40175 36904 ft 480 kts 127°
2026-05-05 15:46 2.63277 78.45370 36907 ft 481 kts 127°
2026-05-05 15:46 2.59067 78.50569 36911 ft 481 kts 126°
2026-05-05 15:47 2.54877 78.55743 36907 ft 482 kts 127°
2026-05-05 15:47 2.50658 78.60952 36908 ft 482 kts 127°
2026-05-05 15:48 2.46435 78.66166 36909 ft 482 kts 127°
2026-05-05 15:48 2.42217 78.71372 36906 ft 482 kts 127°
2026-05-05 15:49 2.37999 78.76578 36907 ft 481 kts 127°
2026-05-05 15:49 2.33799 78.81761 36904 ft 481 kts 127°
2026-05-05 15:50 2.29585 78.86961 36905 ft 481 kts 127°
2026-05-05 15:50 2.25366 78.92166 36911 ft 481 kts 127°
2026-05-05 15:51 2.21143 78.97378 36908 ft 482 kts 127°
2026-05-05 15:51 2.16917 79.02590 36907 ft 483 kts 127°
2026-05-05 15:52 2.12686 79.07810 36904 ft 483 kts 127°
2026-05-05 15:52 2.08455 79.13027 36905 ft 483 kts 127°
2026-05-05 15:53 2.04247 79.18217 36904 ft 483 kts 127°
2026-05-05 15:53 2.00012 79.23440 36906 ft 483 kts 127°
2026-05-05 15:54 1.95779 79.28659 36907 ft 483 kts 127°
2026-05-05 15:54 1.91544 79.33881 36904 ft 483 kts 127°
2026-05-05 15:55 1.88019 79.38226 36905 ft 483 kts 127°
2026-05-05 15:55 1.83785 79.43447 36902 ft 484 kts 128°
2026-05-05 15:56 1.79542 79.48676 36908 ft 483 kts 127°
2026-05-05 15:56 1.75297 79.53908 36904 ft 484 kts 128°
2026-05-05 15:57 1.71043 79.59151 36910 ft 485 kts 127°
2026-05-05 15:57 1.66794 79.64386 36906 ft 484 kts 127°
2026-05-05 15:58 1.62558 79.69606 36904 ft 484 kts 127°
2026-05-05 15:58 1.58337 79.74808 36905 ft 486 kts 127°
2026-05-05 15:59 1.54079 79.80054 36900 ft 485 kts 127°
2026-05-05 15:59 1.49826 79.85293 36902 ft 483 kts 128°
2026-05-05 16:00 1.45580 79.90524 36903 ft 485 kts 128°
2026-05-05 16:00 1.41318 79.95774 36908 ft 487 kts 127°
2026-05-05 16:01 1.37056 80.01023 36908 ft 485 kts 127°
2026-05-05 16:01 1.32806 80.06257 36906 ft 485 kts 127°
2026-05-05 16:02 1.28577 80.11466 36905 ft 486 kts 128°
2026-05-05 16:02 1.24307 80.16726 36900 ft 486 kts 127°
2026-05-05 16:03 1.20055 80.21961 36906 ft 484 kts 128°
2026-05-05 16:03 1.15807 80.27192 36907 ft 485 kts 128°
2026-05-05 16:04 1.11544 80.32441 36904 ft 487 kts 127°
2026-05-05 16:04 1.07280 80.37691 36903 ft 486 kts 127°
2026-05-05 16:05 1.03021 80.42935 36906 ft 486 kts 127°
2026-05-05 16:05 0.98758 80.48184 36907 ft 487 kts 128°
2026-05-05 16:06 0.94478 80.53452 36911 ft 487 kts 128°
2026-05-05 16:06 0.90238 80.58671 36903 ft 485 kts 127°
2026-05-05 16:07 0.85987 80.63904 36918 ft 485 kts 127°
2026-05-05 16:07 0.81729 80.69146 36901 ft 486 kts 127°
2026-05-05 16:08 0.77464 80.74396 36902 ft 486 kts 127°
2026-05-05 16:08 0.73211 80.79629 36921 ft 483 kts 127°
2026-05-05 16:09 0.68981 80.84835 36907 ft 482 kts 127°
2026-05-05 16:09 0.64753 80.90040 36907 ft 482 kts 127°
2026-05-05 16:10 0.60521 80.95249 36906 ft 482 kts 127°
2026-05-05 16:10 0.56297 81.00447 36905 ft 482 kts 127°
2026-05-05 16:11 0.52102 81.05610 36923 ft 482 kts 127°
2026-05-05 16:12 0.43645 81.16017 36906 ft 481 kts 127°
2026-05-05 16:13 0.33082 81.29015 36904 ft 482 kts 127°
2026-05-05 16:13 0.28855 81.34217 36900 ft 482 kts 127°
2026-05-05 16:14 0.20417 81.44599 36916 ft 482 kts 127°
2026-05-05 16:15 0.11954 81.55013 36904 ft 482 kts 127°
2026-05-05 16:16 0.03498 81.65418 36918 ft 482 kts 127°
2026-05-05 16:17 -0.02854 81.73234 36918 ft 483 kts 127°
2026-05-05 16:18 -0.09198 81.81041 36918 ft 485 kts 127°
2026-05-05 16:19 -0.15589 81.88903 36919 ft 485 kts 127°
2026-05-05 16:19 -0.21979 81.96766 36918 ft 484 kts 127°
2026-05-05 16:20 -0.30466 82.07211 36915 ft 485 kts 127°
2026-05-05 16:22 -0.41099 82.20295 36902 ft 486 kts 128°
2026-05-05 16:23 -0.49667 82.30838 36902 ft 488 kts 127°
2026-05-05 16:23 -0.56071 82.38719 36917 ft 487 kts 127°
2026-05-05 16:24 -0.60327 82.43958 36911 ft 490 kts 128°
2026-05-05 16:25 -0.66774 82.51891 36906 ft 489 kts 128°
2026-05-05 16:25 -0.73197 82.59797 36904 ft 489 kts 128°
2026-05-05 16:26 -0.81768 82.70345 36908 ft 486 kts 127°
2026-05-05 16:27 -0.86023 82.75583 36909 ft 484 kts 128°
2026-05-05 16:27 -0.90274 82.80817 36905 ft 486 kts 128°
2026-05-05 16:28 -0.94515 82.86037 36906 ft 487 kts 127°
2026-05-05 16:28 -0.98784 82.91292 36908 ft 486 kts 127°
2026-05-05 16:29 -1.03040 82.96532 36906 ft 485 kts 128°
2026-05-05 16:29 -1.07293 83.01769 36907 ft 486 kts 128°
2026-05-05 16:30 -1.11564 83.07028 36904 ft 487 kts 127°
2026-05-05 16:30 -1.15835 83.12286 36907 ft 486 kts 127°
2026-05-05 16:31 -1.20064 83.17493 36907 ft 486 kts 127°
2026-05-05 16:31 -1.24331 83.22750 36908 ft 488 kts 127°
2026-05-05 16:32 -1.28615 83.28025 36902 ft 489 kts 127°
2026-05-05 16:32 -1.32898 83.33300 36900 ft 488 kts 127°
2026-05-05 16:33 -1.37171 83.38562 36921 ft 488 kts 127°
2026-05-05 16:33 -1.41447 83.43830 36906 ft 488 kts 128°
2026-05-05 16:34 -1.45734 83.49110 36902 ft 489 kts 127°
2026-05-05 16:34 -1.49989 83.54351 36899 ft 488 kts 127°
2026-05-05 16:35 -1.54275 83.59633 36911 ft 489 kts 127°
2026-05-05 16:35 -1.58562 83.64914 36915 ft 490 kts 127°
2026-05-05 16:36 -1.62860 83.70210 36898 ft 490 kts 127°
2026-05-05 16:36 -1.67155 83.75502 36896 ft 490 kts 127°
2026-05-05 16:37 -1.71440 83.80783 36893 ft 489 kts 127°
2026-05-05 16:37 -1.75729 83.86069 36911 ft 490 kts 127°
2026-05-05 16:38 -1.80027 83.91367 36892 ft 490 kts 127°
2026-05-05 16:38 -1.84291 83.96623 36894 ft 490 kts 127°
2026-05-05 16:39 -1.88582 84.01911 36911 ft 489 kts 127°
2026-05-05 16:39 -1.92877 84.07207 36911 ft 490 kts 127°
2026-05-05 16:40 -1.97172 84.12503 36889 ft 490 kts 127°
2026-05-05 16:40 -2.01484 84.17790 37155 ft 488 kts 128°
2026-05-05 16:41 -2.03717 84.20335 37473 ft 486 kts 130°
2026-05-05 16:41 -2.05995 84.22828 37727 ft 485 kts 131°
2026-05-05 16:41 -2.08288 84.25307 37866 ft 485 kts 130°
2026-05-05 16:41 -2.10549 84.27754 38110 ft 484 kts 131°
2026-05-05 16:42 -2.12825 84.30235 38261 ft 484 kts 130°
2026-05-05 16:42 -2.15095 84.32727 38374 ft 485 kts 130°
2026-05-05 16:42 -2.17360 84.35229 38508 ft 485 kts 130°
2026-05-05 16:42 -2.19614 84.37726 38722 ft 482 kts 130°
2026-05-05 16:43 -2.21101 84.39375 38839 ft 482 kts 130°
2026-05-05 16:43 -2.23346 84.41867 38895 ft 483 kts 130°
2026-05-05 16:43 -2.27858 84.46875 38898 ft 483 kts 130°
2026-05-05 16:44 -2.32359 84.51870 38892 ft 484 kts 130°
2026-05-05 16:44 -2.36870 84.56874 38895 ft 484 kts 130°
2026-05-05 16:45 -2.41379 84.61875 38893 ft 484 kts 130°
2026-05-05 16:45 -2.45888 84.66878 38887 ft 484 kts 130°
2026-05-05 16:46 -2.50406 84.71890 38892 ft 484 kts 130°
2026-05-05 16:46 -2.54917 84.76896 38892 ft 485 kts 130°
2026-05-05 16:47 -2.59436 84.81912 38885 ft 485 kts 130°
2026-05-05 16:47 -2.63932 84.86902 38887 ft 486 kts 130°
2026-05-05 16:48 -2.68456 84.91924 38886 ft 485 kts 130°
2026-05-05 16:48 -2.72974 84.96940 38886 ft 485 kts 130°
2026-05-05 16:49 -2.77485 85.01948 38883 ft 484 kts 130°
2026-05-05 16:49 -2.81997 85.06960 38882 ft 485 kts 130°
2026-05-05 16:50 -2.86523 85.11987 38887 ft 487 kts 130°
2026-05-05 16:50 -2.91063 85.17029 38886 ft 487 kts 130°
2026-05-05 16:51 -2.95596 85.22064 38886 ft 487 kts 130°
2026-05-05 16:51 -3.00123 85.27094 38886 ft 486 kts 130°
2026-05-05 16:52 -3.04646 85.32121 38887 ft 486 kts 130°
2026-05-05 16:52 -3.09179 85.37159 38887 ft 487 kts 130°
2026-05-05 16:53 -3.13695 85.42178 38883 ft 488 kts 130°
2026-05-05 16:53 -3.18243 85.47234 38885 ft 490 kts 130°
2026-05-05 16:54 -3.22811 85.52313 38883 ft 491 kts 130°
2026-05-05 16:54 -3.27382 85.57396 38885 ft 491 kts 130°
2026-05-05 16:55 -3.31961 85.62487 38885 ft 491 kts 130°
2026-05-05 16:55 -3.36530 85.67570 38886 ft 491 kts 130°
2026-05-05 16:56 -3.41076 85.72627 38883 ft 491 kts 129°
2026-05-05 16:56 -3.45644 85.77710 38883 ft 491 kts 130°
2026-05-05 16:57 -3.50225 85.82808 38877 ft 491 kts 130°
2026-05-05 16:57 -3.54779 85.87876 38877 ft 491 kts 130°
2026-05-05 16:58 -3.59347 85.92961 38883 ft 491 kts 130°
2026-05-05 16:58 -3.63919 85.98052 38883 ft 492 kts 130°
2026-05-05 16:59 -3.68491 86.03143 38881 ft 491 kts 130°
2026-05-05 16:59 -3.73061 86.08232 38879 ft 491 kts 129°
2026-05-05 17:00 -3.77634 86.13326 38884 ft 491 kts 130°
2026-05-05 17:00 -3.82202 86.18415 38873 ft 490 kts 130°
2026-05-05 17:01 -3.86767 86.23503 38876 ft 491 kts 130°
2026-05-05 17:01 -3.91339 86.28599 38878 ft 492 kts 130°
2026-05-05 17:02 -3.95921 86.33705 38880 ft 492 kts 130°
2026-05-05 17:02 -4.00496 86.38806 38880 ft 492 kts 130°
2026-05-05 17:03 -4.05074 86.43911 38882 ft 492 kts 130°
2026-05-05 17:03 -4.09647 86.49011 38883 ft 492 kts 130°
2026-05-05 17:04 -4.14195 86.54084 38882 ft 492 kts 130°
2026-05-05 17:04 -4.18771 86.59190 38878 ft 493 kts 130°
2026-05-05 17:05 -4.23368 86.64321 38881 ft 497 kts 130°
2026-05-05 17:05 -4.27988 86.69478 38881 ft 498 kts 130°
2026-05-05 17:06 -4.32613 86.74640 38881 ft 498 kts 130°
2026-05-05 17:06 -4.37237 86.79802 38881 ft 497 kts 130°
2026-05-05 17:07 -4.41855 86.84959 38878 ft 497 kts 130°
2026-05-05 17:07 -4.46477 86.90122 38878 ft 497 kts 130°
2026-05-05 17:08 -4.51100 86.95288 38878 ft 497 kts 130°
2026-05-05 17:08 -4.55726 87.00457 38878 ft 498 kts 130°
2026-05-05 17:09 -4.60323 87.05595 38879 ft 498 kts 130°
2026-05-05 17:09 -4.64951 87.10769 38880 ft 498 kts 130°
2026-05-05 17:10 -4.69582 87.15947 38881 ft 498 kts 130°
2026-05-05 17:10 -4.74220 87.21135 38878 ft 498 kts 130°
2026-05-05 17:11 -4.78850 87.26314 38879 ft 499 kts 130°
2026-05-05 17:11 -4.83477 87.31491 38879 ft 499 kts 130°
2026-05-05 17:12 -4.88085 87.36649 38879 ft 499 kts 130°
2026-05-05 17:12 -4.92714 87.41830 38881 ft 498 kts 130°
2026-05-05 17:13 -4.97339 87.47009 38880 ft 499 kts 130°
2026-05-05 17:13 -5.01977 87.52197 38881 ft 499 kts 130°
2026-05-05 17:14 -5.06662 87.57357 38881 ft 500 kts 130°
2026-05-05 17:14 -5.11321 87.62468 38881 ft 499 kts 130°
2026-05-05 17:15 -5.16007 87.67620 38882 ft 499 kts 130°
2026-05-05 17:15 -5.20687 87.72775 38878 ft 500 kts 130°
2026-05-05 17:16 -5.25377 87.77946 38881 ft 502 kts 130°
2026-05-05 17:16 -5.30084 87.83136 38881 ft 502 kts 130°
2026-05-05 17:17 -5.34783 87.88318 38882 ft 502 kts 130°
2026-05-05 17:17 -5.39463 87.93481 38878 ft 503 kts 130°
2026-05-05 17:18 -5.44172 87.98676 38881 ft 503 kts 130°
2026-05-05 17:18 -5.48889 88.03882 38879 ft 503 kts 130°
2026-05-05 17:19 -5.53561 88.09039 38875 ft 503 kts 130°
2026-05-05 17:19 -5.58275 88.14245 38879 ft 505 kts 130°
2026-05-05 17:20 -5.63006 88.19470 38878 ft 505 kts 130°
2026-05-05 17:20 -5.67730 88.24689 38878 ft 505 kts 130°
2026-05-05 17:21 -5.72464 88.29920 38879 ft 506 kts 130°
2026-05-05 17:22 -5.79531 88.37731 38875 ft 505 kts 130°
2026-05-05 17:22 -5.84253 88.42953 38876 ft 505 kts 130°
2026-05-05 17:23 -5.88977 88.48178 38878 ft 505 kts 131°
2026-05-05 17:23 -5.93710 88.53416 38876 ft 507 kts 131°
2026-05-05 17:24 -5.98456 88.58667 38876 ft 508 kts 131°
2026-05-05 17:24 -6.03201 88.63920 38873 ft 508 kts 131°
2026-05-05 17:25 -6.07948 88.69176 38876 ft 508 kts 131°
2026-05-05 17:25 -6.12698 88.74437 38876 ft 508 kts 130°
2026-05-05 17:26 -6.17443 88.79694 38879 ft 508 kts 130°
2026-05-05 17:26 -6.22200 88.84966 38879 ft 508 kts 130°
2026-05-05 17:27 -6.26923 88.90203 38879 ft 508 kts 131°
2026-05-05 17:27 -6.31667 88.95463 38881 ft 508 kts 131°
2026-05-05 17:28 -6.36413 89.00728 38877 ft 508 kts 131°
2026-05-05 17:28 -6.41155 89.05989 38875 ft 508 kts 131°
2026-05-05 17:29 -6.45898 89.11253 38878 ft 508 kts 131°
2026-05-05 17:29 -6.50640 89.16518 38877 ft 508 kts 130°
2026-05-05 17:30 -6.54594 89.20909 38880 ft 509 kts 130°
2026-05-05 17:30 -6.59348 89.26190 38881 ft 508 kts 130°
2026-05-05 17:31 -6.64078 89.31445 38884 ft 506 kts 130°
2026-05-05 17:31 -6.68798 89.36692 38883 ft 505 kts 130°
2026-05-05 17:32 -6.73515 89.41937 38883 ft 505 kts 130°
2026-05-05 17:32 -6.78199 89.47147 38883 ft 505 kts 130°
2026-05-05 17:33 -6.82917 89.52395 38886 ft 505 kts 130°
2026-05-05 17:33 -6.87635 89.57646 38884 ft 506 kts 130°
2026-05-05 17:34 -6.92355 89.62901 38883 ft 506 kts 130°
2026-05-05 17:34 -6.97081 89.68165 38887 ft 506 kts 130°
2026-05-05 17:35 -7.01776 89.73394 38886 ft 506 kts 130°
2026-05-05 17:35 -7.06496 89.78654 38885 ft 506 kts 130°
2026-05-05 17:36 -7.11229 89.83930 38885 ft 506 kts 130°
2026-05-05 17:36 -7.15947 89.89192 38884 ft 506 kts 130°
2026-05-05 17:37 -7.20668 89.94458 38881 ft 506 kts 130°
2026-05-05 17:37 -7.25363 89.99697 38885 ft 506 kts 130°
2026-05-05 17:38 -7.30070 90.04950 38886 ft 504 kts 130°
2026-05-05 17:38 -7.34765 90.10192 38887 ft 503 kts 130°
2026-05-05 17:39 -7.39457 90.15434 38887 ft 503 kts 130°
2026-05-05 17:39 -7.44152 90.20680 38886 ft 503 kts 130°
2026-05-05 17:40 -7.48839 90.25919 38887 ft 503 kts 130°
2026-05-05 17:40 -7.53524 90.31158 38886 ft 503 kts 130°
2026-05-05 17:41 -7.58214 90.36404 38889 ft 503 kts 130°
2026-05-05 17:41 -7.62881 90.41626 38887 ft 504 kts 130°
2026-05-05 17:42 -7.67580 90.46886 38889 ft 505 kts 130°
2026-05-05 17:42 -7.72278 90.52146 38889 ft 505 kts 130°
2026-05-05 17:43 -7.76974 90.57407 38887 ft 505 kts 130°
2026-05-05 17:43 -7.81671 90.62669 38889 ft 505 kts 130°
2026-05-05 17:44 -7.86376 90.67944 38894 ft 505 kts 130°
2026-05-05 17:44 -7.91071 90.73208 38892 ft 505 kts 130°
2026-05-05 17:45 -7.95768 90.78477 38890 ft 505 kts 131°
2026-05-05 17:45 -8.00442 90.83723 38890 ft 506 kts 130°
2026-05-05 17:46 -8.05157 90.89015 38894 ft 507 kts 131°
2026-05-05 17:46 -8.09873 90.94312 38892 ft 507 kts 130°
2026-05-05 17:47 -8.14588 90.99608 38893 ft 507 kts 130°
2026-05-05 17:47 -8.19305 91.04910 38895 ft 507 kts 130°
2026-05-05 17:48 -8.24025 91.10216 38896 ft 507 kts 130°
2026-05-05 17:48 -8.28742 91.15522 38895 ft 507 kts 130°
2026-05-05 17:49 -8.33450 91.20819 38892 ft 506 kts 130°
2026-05-05 17:49 -8.38155 91.26115 38895 ft 507 kts 130°
2026-05-05 17:50 -8.42835 91.31384 38897 ft 507 kts 130°
2026-05-05 17:50 -8.47550 91.36696 38893 ft 507 kts 130°
2026-05-05 17:51 -8.52259 91.42003 38895 ft 507 kts 130°
2026-05-05 17:51 -8.56966 91.47310 38899 ft 507 kts 130°
2026-05-05 17:52 -8.61678 91.52625 38903 ft 507 kts 130°
2026-05-05 17:52 -8.66390 91.57940 38899 ft 507 kts 130°
2026-05-05 17:53 -8.71090 91.63246 38899 ft 507 kts 130°
2026-05-05 17:53 -8.75795 91.68559 38900 ft 508 kts 130°
2026-05-05 17:54 -8.80514 91.73890 38899 ft 509 kts 130°
2026-05-05 17:54 -8.85199 91.79185 38899 ft 508 kts 130°
2026-05-05 17:55 -8.89918 91.84520 38900 ft 508 kts 130°
2026-05-05 17:55 -8.94633 91.89852 38896 ft 508 kts 130°
2026-05-05 17:56 -8.99350 91.95191 38897 ft 510 kts 130°
2026-05-05 17:56 -9.04078 92.00544 38898 ft 511 kts 130°
2026-05-05 17:57 -9.08811 92.05904 38903 ft 511 kts 130°
2026-05-05 17:57 -9.13550 92.11273 38899 ft 512 kts 130°
2026-05-05 17:58 -9.18270 92.16623 38898 ft 512 kts 130°
2026-05-05 17:58 -9.23022 92.22012 38897 ft 512 kts 130°
2026-05-05 17:59 -9.27774 92.27403 38902 ft 512 kts 130°
2026-05-05 17:59 -9.32515 92.32784 38899 ft 511 kts 130°
2026-05-05 18:00 -9.37237 92.38146 38902 ft 509 kts 130°
2026-05-05 18:00 -9.41951 92.43501 38905 ft 509 kts 130°
2026-05-05 18:01 -9.46671 92.48865 38906 ft 510 kts 130°
2026-05-05 18:01 -9.51395 92.54237 38903 ft 510 kts 130°
2026-05-05 18:02 -9.56118 92.59609 38897 ft 510 kts 130°
2026-05-05 18:02 -9.60809 92.64948 38899 ft 510 kts 130°
2026-05-05 18:03 -9.65529 92.70322 38898 ft 509 kts 130°
2026-05-05 18:03 -9.70229 92.75675 38903 ft 508 kts 130°
2026-05-05 18:04 -9.74929 92.81032 38896 ft 508 kts 130°
2026-05-05 18:04 -9.79629 92.86390 38898 ft 507 kts 130°
2026-05-05 18:05 -9.84289 92.91706 38903 ft 508 kts 130°
2026-05-05 18:05 -9.88982 92.97061 38904 ft 508 kts 130°
2026-05-05 18:06 -9.93675 93.02419 38906 ft 508 kts 130°
2026-05-05 18:06 -9.98369 93.07781 38906 ft 508 kts 130°
2026-05-05 18:07 -10.02298 93.12270 38906 ft 508 kts 130°
2026-05-05 18:07 -10.04377 93.14648 38905 ft 508 kts 130°
2026-05-05 18:08 -10.09069 93.20012 38901 ft 508 kts 130°
2026-05-05 18:08 -10.13757 93.25375 38903 ft 508 kts 130°
2026-05-05 18:09 -10.18421 93.30714 38906 ft 508 kts 130°
2026-05-05 18:09 -10.23137 93.36115 38901 ft 509 kts 130°
2026-05-05 18:10 -10.27805 93.41463 38902 ft 509 kts 130°
2026-05-05 18:10 -10.32500 93.46844 38902 ft 509 kts 130°
2026-05-05 18:11 -10.37197 93.52231 38903 ft 509 kts 130°
2026-05-05 18:11 -10.41897 93.57623 38907 ft 509 kts 130°
2026-05-05 18:12 -10.46592 93.63012 38904 ft 509 kts 130°
2026-05-05 18:12 -10.51286 93.68403 38902 ft 509 kts 130°
2026-05-05 18:13 -10.55980 93.73796 38908 ft 509 kts 130°
2026-05-05 18:13 -10.60673 93.79192 38906 ft 510 kts 130°
2026-05-05 18:14 -10.65336 93.84566 38891 ft 509 kts 129°
2026-05-05 18:14 -10.69651 93.90267 38904 ft 508 kts 124°
2026-05-05 18:15 -10.73750 93.96129 38905 ft 508 kts 124°
2026-05-05 18:15 -10.77887 94.01957 38907 ft 508 kts 125°
2026-05-05 18:16 -10.82077 94.07748 38908 ft 508 kts 125°
2026-05-05 18:16 -10.86284 94.13524 38907 ft 508 kts 125°
2026-05-05 18:17 -10.90496 94.19308 38908 ft 508 kts 125°
2026-05-05 18:17 -10.94699 94.25089 38908 ft 509 kts 126°
2026-05-05 18:18 -10.98199 94.29907 38907 ft 509 kts 125°
2026-05-05 18:18 -11.02405 94.35701 38905 ft 509 kts 125°
2026-05-05 18:19 -11.06613 94.41500 38905 ft 509 kts 125°
2026-05-05 18:19 -11.10816 94.47296 38907 ft 509 kts 125°
2026-05-05 18:20 -11.15026 94.53103 38909 ft 509 kts 125°
2026-05-05 18:20 -11.19230 94.58907 38909 ft 509 kts 126°
2026-05-05 18:21 -11.23406 94.64674 38907 ft 509 kts 126°
2026-05-05 18:21 -11.27608 94.70482 38914 ft 509 kts 126°
2026-05-05 18:22 -11.31809 94.76291 38903 ft 509 kts 126°
2026-05-05 18:22 -11.36011 94.82103 38901 ft 509 kts 126°
2026-05-05 18:23 -11.40209 94.87914 38911 ft 509 kts 126°
2026-05-05 18:23 -11.44407 94.93730 38915 ft 509 kts 126°
2026-05-05 18:24 -11.48606 94.99549 38902 ft 509 kts 126°
2026-05-05 18:24 -11.52805 95.05371 38902 ft 510 kts 126°
2026-05-05 18:25 -11.56999 95.11190 38905 ft 509 kts 126°
2026-05-05 18:25 -11.61195 95.17015 38921 ft 510 kts 126°
2026-05-05 18:26 -11.65393 95.22846 38904 ft 510 kts 126°
2026-05-05 18:26 -11.69588 95.28676 38906 ft 510 kts 126°
2026-05-05 18:27 -11.73779 95.34505 38911 ft 509 kts 126°
2026-05-05 18:27 -11.77949 95.40307 38909 ft 510 kts 126°
2026-05-05 18:28 -11.84260 95.49096 38907 ft 511 kts 126°
2026-05-05 18:28 -11.88460 95.54949 38912 ft 511 kts 126°
2026-05-05 18:29 -11.92640 95.60777 38912 ft 511 kts 126°
2026-05-05 18:29 -11.96864 95.66670 38910 ft 511 kts 126°
2026-05-05 18:30 -12.01035 95.72494 38920 ft 512 kts 126°
2026-05-05 18:30 -12.05265 95.78403 38912 ft 515 kts 126°
2026-05-05 18:31 -12.09493 95.84312 38914 ft 515 kts 126°
2026-05-05 18:31 -12.13724 95.90229 38914 ft 515 kts 126°
2026-05-05 18:32 -12.17951 95.96145 38915 ft 515 kts 126°
2026-05-05 18:32 -12.22176 96.02061 38914 ft 515 kts 126°
2026-05-05 18:33 -12.26380 96.07951 38916 ft 515 kts 126°
2026-05-05 18:33 -12.30609 96.13881 38914 ft 516 kts 126°
2026-05-05 18:34 -12.34844 96.19822 38916 ft 517 kts 126°
2026-05-05 18:34 -12.39049 96.25724 38914 ft 516 kts 126°
2026-05-05 18:35 -12.43270 96.31654 38915 ft 515 kts 126°
2026-05-05 18:35 -12.47489 96.37584 38915 ft 515 kts 126°
2026-05-05 18:36 -12.51704 96.43513 38918 ft 515 kts 126°
2026-05-05 18:36 -12.55931 96.49462 38918 ft 516 kts 126°
2026-05-05 18:37 -12.60127 96.55371 38916 ft 517 kts 126°
2026-05-05 18:37 -12.64357 96.61332 38917 ft 518 kts 126°
2026-05-05 18:38 -12.68591 96.67301 38913 ft 518 kts 126°
2026-05-05 18:38 -12.72824 96.73275 38917 ft 519 kts 126°
2026-05-05 18:39 -12.77066 96.79263 38917 ft 519 kts 126°
2026-05-05 18:39 -12.81308 96.85256 38916 ft 520 kts 126°
2026-05-05 18:40 -12.85559 96.91267 38919 ft 520 kts 126°
2026-05-05 18:40 -12.89808 96.97277 38920 ft 521 kts 126°
2026-05-05 18:41 -12.94057 97.03292 38920 ft 521 kts 126°
2026-05-05 18:41 -12.98283 97.09279 38919 ft 521 kts 126°
2026-05-05 18:42 -13.02527 97.15294 38917 ft 521 kts 126°
2026-05-05 18:42 -13.06773 97.21316 38917 ft 521 kts 126°
2026-05-05 18:43 -13.11018 97.27342 38923 ft 522 kts 126°
2026-05-05 18:43 -13.15271 97.33383 38922 ft 522 kts 126°
2026-05-05 18:44 -13.19522 97.39425 38922 ft 522 kts 126°
2026-05-05 18:44 -13.23768 97.45463 38918 ft 522 kts 126°
2026-05-05 18:45 -13.28012 97.51504 38921 ft 522 kts 126°
2026-05-05 18:45 -13.32236 97.57519 38921 ft 522 kts 126°
2026-05-05 18:46 -13.36479 97.63568 38920 ft 522 kts 126°
2026-05-05 18:46 -13.40721 97.69617 38926 ft 522 kts 127°
2026-05-05 18:47 -13.44964 97.75672 38922 ft 522 kts 126°
2026-05-05 18:47 -13.49209 97.81735 38925 ft 523 kts 126°
2026-05-05 18:48 -13.53453 97.87801 38927 ft 523 kts 126°
2026-05-05 18:48 -13.57697 97.93870 38931 ft 522 kts 126°
2026-05-05 18:49 -13.61938 97.99940 38925 ft 522 kts 126°
2026-05-05 18:49 -13.66173 98.06006 38930 ft 522 kts 126°
2026-05-05 18:50 -13.70400 98.12064 38927 ft 521 kts 126°
2026-05-05 18:50 -13.74602 98.18090 38927 ft 522 kts 127°
2026-05-05 18:51 -13.78840 98.24172 38923 ft 523 kts 127°
2026-05-05 18:51 -13.83082 98.30265 38928 ft 523 kts 127°
2026-05-05 18:52 -13.87320 98.36357 38928 ft 523 kts 127°
2026-05-05 18:52 -13.91550 98.42441 38926 ft 522 kts 127°
2026-05-05 18:53 -13.95776 98.48523 38930 ft 522 kts 127°
2026-05-05 18:53 -14.00001 98.54609 38927 ft 522 kts 127°
2026-05-05 18:54 -14.04225 98.60698 38935 ft 522 kts 127°
2026-05-05 18:54 -14.08420 98.66749 38933 ft 522 kts 127°
2026-05-05 18:55 -14.12646 98.72850 38925 ft 523 kts 127°
2026-05-05 18:55 -14.16870 98.78952 38926 ft 522 kts 127°
2026-05-05 18:56 -14.21082 98.85042 38935 ft 521 kts 127°
2026-05-05 18:56 -14.25292 98.91133 38932 ft 521 kts 127°
2026-05-05 18:57 -14.29466 98.97175 38933 ft 521 kts 127°
2026-05-05 18:57 -14.33669 99.03265 38929 ft 521 kts 127°
2026-05-05 18:58 -14.37868 99.09354 38933 ft 521 kts 127°
2026-05-05 18:58 -14.42062 99.15439 38936 ft 520 kts 127°
2026-05-05 18:59 -14.46246 99.21515 38935 ft 519 kts 127°
2026-05-05 18:59 -14.50432 99.27599 38935 ft 519 kts 127°
2026-05-05 19:00 -14.54611 99.33676 38934 ft 519 kts 127°
2026-05-05 19:00 -14.58789 99.39756 38938 ft 519 kts 127°
2026-05-05 19:01 -14.62970 99.45846 38936 ft 519 kts 127°
2026-05-05 19:01 -14.67117 99.51891 38934 ft 518 kts 127°
2026-05-05 19:02 -14.71285 99.57971 38934 ft 517 kts 127°
2026-05-05 19:02 -14.75444 99.64043 38942 ft 519 kts 127°
2026-05-05 19:03 -14.79628 99.70154 38934 ft 520 kts 127°
2026-05-05 19:03 -14.83804 99.76260 38931 ft 520 kts 127°
2026-05-05 19:04 -14.87984 99.82376 38938 ft 521 kts 127°
2026-05-05 19:04 -14.92138 99.88461 38937 ft 520 kts 127°
2026-05-05 19:05 -14.96301 99.94562 38936 ft 519 kts 127°
2026-05-05 19:05 -15.00458 100.00660 38934 ft 519 kts 127°
2026-05-05 19:06 -15.03785 100.05835 38938 ft 520 kts 124°
2026-05-05 19:06 -15.07636 100.12168 38939 ft 520 kts 124°
2026-05-05 19:07 -15.11507 100.18519 38940 ft 522 kts 124°
2026-05-05 19:07 -15.15414 100.24862 38942 ft 522 kts 124°
2026-05-05 19:08 -15.19328 100.31189 38939 ft 521 kts 124°
2026-05-05 19:08 -15.23244 100.37521 38943 ft 521 kts 124°
2026-05-05 19:09 -15.27126 100.43805 38944 ft 521 kts 124°
2026-05-05 19:09 -15.31033 100.50135 38944 ft 521 kts 124°
2026-05-05 19:10 -15.34940 100.56473 38944 ft 521 kts 124°
2026-05-05 19:10 -15.38840 100.62805 38952 ft 521 kts 124°
2026-05-05 19:11 -15.42746 100.69151 38949 ft 522 kts 124°
2026-05-05 19:11 -15.46656 100.75508 38946 ft 523 kts 124°
2026-05-05 19:12 -15.50561 100.81865 38946 ft 523 kts 124°
2026-05-05 19:12 -15.54469 100.88230 38949 ft 523 kts 124°
2026-05-05 19:13 -15.58377 100.94601 38944 ft 523 kts 124°
2026-05-05 19:13 -15.62254 101.00927 38949 ft 523 kts 124°
2026-05-05 19:14 -15.66157 101.07300 38949 ft 523 kts 124°
2026-05-05 19:14 -15.70055 101.13671 38953 ft 523 kts 124°
2026-05-05 19:15 -15.73954 101.20049 38947 ft 524 kts 125°
2026-05-05 19:15 -15.77863 101.26448 38955 ft 525 kts 125°
2026-05-05 19:16 -15.81774 101.32858 38948 ft 525 kts 125°
2026-05-05 19:16 -15.85682 101.39267 38948 ft 525 kts 125°
2026-05-05 19:17 -15.89585 101.45674 38954 ft 524 kts 125°
2026-05-05 19:17 -15.93459 101.52039 38955 ft 524 kts 125°
2026-05-05 19:18 -15.97359 101.58451 38952 ft 524 kts 125°
2026-05-05 19:18 -16.01255 101.64863 38939 ft 524 kts 125°
2026-05-05 19:19 -16.05155 101.71286 38947 ft 525 kts 125°
2026-05-05 19:19 -16.09050 101.77707 38946 ft 525 kts 124°
2026-05-05 19:20 -16.12942 101.84130 38957 ft 525 kts 124°
2026-05-05 19:20 -16.16840 101.90568 38949 ft 525 kts 124°
2026-05-05 19:21 -16.20731 101.96999 38952 ft 525 kts 124°
2026-05-05 19:21 -16.24601 102.03402 38952 ft 525 kts 124°
2026-05-05 19:22 -16.28491 102.09845 38953 ft 525 kts 124°
2026-05-05 19:22 -16.32374 102.16280 38954 ft 525 kts 124°
2026-05-05 19:23 -16.36256 102.22720 38959 ft 525 kts 124°
2026-05-05 19:23 -16.40122 102.29139 38957 ft 527 kts 124°
2026-05-05 19:24 -16.44018 102.35614 38957 ft 527 kts 124°
2026-05-05 19:24 -16.47908 102.42085 38959 ft 527 kts 124°
2026-05-05 19:25 -16.51799 102.48565 38958 ft 527 kts 124°
2026-05-05 19:25 -16.55688 102.55045 38960 ft 527 kts 124°
2026-05-05 19:26 -16.59549 102.61486 38960 ft 527 kts 124°
2026-05-05 19:26 -16.63432 102.67969 38957 ft 527 kts 124°
2026-05-05 19:27 -16.67311 102.74451 38961 ft 527 kts 125°
2026-05-05 19:27 -16.71198 102.80952 38960 ft 529 kts 124°
2026-05-05 19:28 -16.75091 102.87470 38960 ft 529 kts 124°
2026-05-05 19:28 -16.78982 102.93992 38963 ft 529 kts 124°
2026-05-05 19:29 -16.82877 103.00525 38963 ft 529 kts 124°
2026-05-05 19:29 -16.86764 103.07051 38963 ft 529 kts 124°
2026-05-05 19:30 -16.90652 103.13586 38966 ft 529 kts 124°
2026-05-05 19:30 -16.94512 103.20079 38966 ft 529 kts 124°
2026-05-05 19:31 -16.98400 103.26624 38968 ft 530 kts 125°
2026-05-05 19:31 -17.02293 103.33185 38965 ft 531 kts 125°
2026-05-05 19:32 -17.06193 103.39763 38968 ft 532 kts 125°
2026-05-05 19:32 -17.10087 103.46339 38969 ft 532 kts 125°
2026-05-05 19:33 -17.13979 103.52917 38970 ft 532 kts 124°
2026-05-05 19:33 -17.17867 103.59496 38968 ft 532 kts 124°
2026-05-05 19:34 -17.21736 103.66048 38971 ft 532 kts 124°
2026-05-05 19:35 -17.27567 103.75935 38978 ft 532 kts 125°
2026-05-05 19:35 -17.31463 103.82548 38969 ft 534 kts 125°
2026-05-05 19:36 -17.35360 103.89169 38970 ft 534 kts 125°
2026-05-05 19:36 -17.39257 103.95798 38976 ft 535 kts 125°
2026-05-05 19:37 -17.43159 104.02442 38972 ft 535 kts 125°
2026-05-05 19:37 -17.47053 104.09079 38970 ft 535 kts 125°
2026-05-05 19:38 -17.50921 104.15678 38974 ft 535 kts 125°
2026-05-05 19:38 -17.54817 104.22331 38971 ft 535 kts 125°
2026-05-05 19:39 -17.58704 104.28976 38973 ft 535 kts 125°
2026-05-05 19:39 -17.62590 104.35625 38970 ft 534 kts 125°
2026-05-05 19:40 -17.66473 104.42275 38974 ft 534 kts 125°
2026-05-05 19:40 -17.70350 104.48923 38975 ft 534 kts 125°
2026-05-05 19:41 -17.74229 104.55580 38976 ft 535 kts 125°
2026-05-05 19:41 -17.78084 104.62204 38974 ft 535 kts 125°
2026-05-05 19:42 -17.81961 104.68871 38974 ft 535 kts 125°
2026-05-05 19:42 -17.85832 104.75534 38982 ft 535 kts 125°
2026-05-05 19:43 -17.89705 104.82208 38977 ft 536 kts 125°
2026-05-05 19:43 -17.93582 104.88895 38976 ft 536 kts 125°
2026-05-05 19:44 -17.97462 104.95596 38976 ft 536 kts 125°
2026-05-05 19:44 -18.01738 105.01974 39172 ft 531 kts 134°
2026-05-05 19:44 -18.04115 105.04944 39367 ft 529 kts 135°
2026-05-05 19:45 -18.06488 105.07834 39556 ft 528 kts 135°
2026-05-05 19:45 -18.08904 105.10735 39723 ft 527 kts 136°
2026-05-05 19:45 -18.11329 105.13634 39890 ft 527 kts 136°
2026-05-05 19:45 -18.13751 105.16526 40055 ft 526 kts 136°
2026-05-05 19:46 -18.16167 105.19418 40195 ft 526 kts 136°
2026-05-05 19:46 -18.18575 105.22307 40336 ft 526 kts 135°
2026-05-05 19:46 -18.20994 105.25214 40453 ft 527 kts 135°
2026-05-05 19:46 -18.23406 105.28116 40587 ft 526 kts 135°
2026-05-05 19:47 -18.25814 105.31018 40719 ft 526 kts 135°
2026-05-05 19:47 -18.28216 105.33914 40865 ft 525 kts 135°
2026-05-05 19:47 -18.30621 105.36816 40961 ft 525 kts 135°
2026-05-05 19:48 -18.35423 105.42612 40986 ft 525 kts 135°
2026-05-05 19:48 -18.40190 105.48370 40985 ft 525 kts 135°
2026-05-05 19:49 -18.44993 105.54177 40988 ft 525 kts 135°
2026-05-05 19:49 -18.49789 105.59982 40986 ft 525 kts 136°
2026-05-05 19:50 -18.54586 105.65792 40988 ft 525 kts 136°
2026-05-05 19:50 -18.59378 105.71602 40987 ft 525 kts 135°
2026-05-05 19:51 -18.64136 105.77376 40988 ft 525 kts 135°
2026-05-05 19:51 -18.68927 105.83195 40987 ft 525 kts 135°
2026-05-05 19:52 -18.73713 105.89015 40991 ft 525 kts 135°
2026-05-05 19:52 -18.78502 105.94844 40997 ft 525 kts 136°
2026-05-05 19:53 -18.83287 106.00672 40996 ft 525 kts 136°
2026-05-05 19:53 -18.88069 106.06503 40993 ft 525 kts 136°
2026-05-05 19:54 -18.92850 106.12338 40993 ft 525 kts 136°
2026-05-05 19:54 -18.96825 106.17193 40994 ft 525 kts 136°
2026-05-05 19:55 -19.02390 106.23998 40995 ft 525 kts 136°
2026-05-05 19:55 -19.06363 106.28859 41015 ft 525 kts 136°
2026-05-05 19:56 -19.11141 106.34713 41005 ft 526 kts 136°
2026-05-05 19:56 -19.15925 106.40579 40993 ft 526 kts 136°
2026-05-05 19:57 -19.20703 106.46442 40998 ft 526 kts 136°
2026-05-05 19:57 -19.25484 106.52315 40995 ft 526 kts 136°
2026-05-05 19:58 -19.30261 106.58190 40997 ft 526 kts 136°
2026-05-05 19:58 -19.35005 106.64029 41013 ft 526 kts 136°
2026-05-05 19:59 -19.39785 106.69919 41004 ft 527 kts 136°
2026-05-05 19:59 -19.44569 106.75818 41001 ft 528 kts 136°
2026-05-05 20:00 -19.49349 106.81720 41003 ft 528 kts 136°
2026-05-05 20:00 -19.54129 106.87627 41007 ft 528 kts 136°
2026-05-05 20:01 -19.58906 106.93537 41007 ft 528 kts 136°
2026-05-05 20:01 -19.63656 106.99418 41003 ft 528 kts 136°
2026-05-05 20:02 -19.68433 107.05340 41008 ft 528 kts 136°
2026-05-05 20:02 -19.73213 107.11269 41006 ft 528 kts 136°
2026-05-05 20:03 -19.77973 107.17182 41007 ft 528 kts 136°
2026-05-05 20:03 -19.82747 107.23117 41007 ft 528 kts 136°
2026-05-05 20:04 -19.87519 107.29055 41007 ft 529 kts 136°
2026-05-05 20:04 -19.92296 107.35007 41009 ft 529 kts 136°
2026-05-05 20:05 -19.97068 107.40957 41018 ft 529 kts 136°
2026-05-05 20:05 -20.01820 107.46888 41013 ft 529 kts 136°
2026-05-05 20:06 -20.06596 107.52857 41016 ft 529 kts 136°
2026-05-05 20:06 -20.11366 107.58823 41020 ft 529 kts 136°
2026-05-05 20:07 -20.16138 107.64798 41020 ft 530 kts 136°
2026-05-05 20:07 -20.20906 107.70775 41020 ft 530 kts 136°
2026-05-05 20:08 -20.25678 107.76762 41031 ft 531 kts 137°
2026-05-05 20:08 -20.30458 107.82765 41015 ft 531 kts 136°
2026-05-05 20:09 -20.35238 107.88775 41013 ft 532 kts 136°
2026-05-05 20:09 -20.40018 107.94793 41014 ft 532 kts 136°
2026-05-05 20:10 -20.44796 108.00813 41031 ft 531 kts 136°
2026-05-05 20:10 -20.49541 108.06798 41019 ft 532 kts 136°
2026-05-05 20:11 -20.54314 108.12825 41017 ft 532 kts 136°
2026-05-05 20:11 -20.59088 108.18858 41022 ft 532 kts 136°
2026-05-05 20:12 -20.63862 108.24899 41040 ft 532 kts 136°
2026-05-05 20:12 -20.68632 108.30941 41034 ft 532 kts 136°
2026-05-05 20:13 -20.73393 108.36979 41020 ft 532 kts 136°
2026-05-05 20:13 -20.78157 108.43026 41045 ft 532 kts 136°
2026-05-05 20:14 -20.82893 108.49044 41030 ft 532 kts 137°
2026-05-05 20:14 -20.87663 108.55112 41031 ft 532 kts 137°
2026-05-05 20:15 -20.92431 108.61185 41034 ft 532 kts 137°
2026-05-05 20:15 -20.97197 108.67261 41034 ft 532 kts 137°
2026-05-05 20:16 -21.01958 108.73337 41039 ft 532 kts 137°
2026-05-05 20:16 -21.06684 108.79376 41067 ft 533 kts 137°
2026-05-05 20:17 -21.11448 108.85468 41039 ft 534 kts 137°
2026-05-05 20:17 -21.16218 108.91575 41045 ft 535 kts 137°
2026-05-05 20:18 -21.20988 108.97690 41040 ft 535 kts 137°
2026-05-05 20:18 -21.25757 109.03812 41047 ft 535 kts 137°
2026-05-05 20:19 -21.30521 109.09933 41042 ft 535 kts 137°
2026-05-05 20:19 -21.35284 109.16059 41053 ft 535 kts 137°
2026-05-05 20:20 -21.40053 109.22198 41046 ft 536 kts 137°
2026-05-05 20:20 -21.44825 109.28349 41051 ft 536 kts 137°
2026-05-05 20:21 -21.49599 109.34511 41051 ft 536 kts 137°
2026-05-05 20:21 -21.54370 109.40675 41053 ft 536 kts 137°
2026-05-05 20:22 -21.59134 109.46837 41060 ft 536 kts 137°
2026-05-05 20:22 -21.63867 109.52966 41055 ft 536 kts 137°
2026-05-05 20:23 -21.68631 109.59141 41061 ft 536 kts 137°
2026-05-05 20:23 -21.73388 109.65315 41061 ft 536 kts 137°
2026-05-05 20:24 -21.78154 109.71507 41064 ft 536 kts 137°
2026-05-05 20:24 -21.82914 109.77699 41064 ft 536 kts 137°
2026-05-05 20:25 -21.87640 109.83855 41086 ft 536 kts 138°
2026-05-05 20:25 -21.92386 109.90044 41064 ft 536 kts 138°
2026-05-05 20:26 -21.97131 109.96237 41071 ft 536 kts 138°
2026-05-05 20:26 -22.01888 110.02425 41070 ft 535 kts 139°
2026-05-05 20:27 -22.06777 110.08456 41074 ft 533 kts 140°
2026-05-05 20:27 -22.11699 110.14434 41073 ft 533 kts 140°
2026-05-05 20:28 -22.16604 110.20441 41070 ft 533 kts 140°
2026-05-05 20:28 -22.21491 110.26468 41075 ft 533 kts 140°
2026-05-05 20:29 -22.26371 110.32505 41072 ft 534 kts 140°
2026-05-05 20:29 -22.31251 110.38549 41076 ft 534 kts 140°
2026-05-05 20:30 -22.36132 110.44599 41072 ft 534 kts 140°
2026-05-05 20:30 -22.40975 110.50607 41109 ft 534 kts 140°
2026-05-05 20:31 -22.45852 110.56664 41082 ft 535 kts 140°
2026-05-05 20:31 -22.50733 110.62733 41083 ft 535 kts 140°
2026-05-05 20:32 -22.55616 110.68813 41083 ft 535 kts 140°
2026-05-05 20:32 -22.60496 110.74898 41083 ft 535 kts 140°
2026-05-05 20:33 -22.65377 110.80989 41086 ft 535 kts 140°
2026-05-05 20:33 -22.70253 110.87082 41087 ft 535 kts 140°
2026-05-05 20:34 -22.75101 110.93146 41088 ft 535 kts 140°
2026-05-05 20:34 -22.79970 110.99244 41088 ft 535 kts 140°
2026-05-05 20:35 -22.84842 111.05353 41087 ft 535 kts 140°
2026-05-05 20:35 -22.89714 111.11469 41090 ft 535 kts 140°
2026-05-05 20:36 -22.94589 111.17598 41094 ft 535 kts 140°
2026-05-05 20:36 -22.99423 111.23681 41092 ft 535 kts 140°
2026-05-05 20:37 -23.04290 111.29812 41089 ft 535 kts 140°
2026-05-05 20:37 -23.09150 111.35943 41088 ft 535 kts 140°
2026-05-05 20:38 -23.14010 111.42082 41091 ft 535 kts 140°
2026-05-05 20:38 -23.18866 111.48222 41092 ft 535 kts 140°
2026-05-05 20:39 -23.23720 111.54367 41094 ft 536 kts 140°
2026-05-05 20:39 -23.28573 111.60519 41094 ft 536 kts 140°
2026-05-05 20:40 -23.33396 111.66641 41091 ft 536 kts 140°
2026-05-05 20:40 -23.38248 111.72806 41091 ft 536 kts 140°
2026-05-05 20:41 -23.43092 111.78969 41120 ft 536 kts 140°
2026-05-05 20:41 -23.47939 111.85143 41093 ft 536 kts 140°
2026-05-05 20:42 -23.52791 111.91331 41094 ft 536 kts 140°
2026-05-05 20:42 -23.57632 111.97514 41099 ft 536 kts 140°
2026-05-05 20:43 -23.62474 112.03705 41097 ft 536 kts 140°
2026-05-05 20:43 -23.66497 112.08855 41100 ft 536 kts 140°
2026-05-05 20:44 -23.71340 112.15061 41101 ft 537 kts 140°
2026-05-05 20:44 -23.76179 112.21268 41102 ft 537 kts 140°
2026-05-05 20:45 -23.83434 112.30594 41112 ft 537 kts 140°
2026-05-05 20:45 -23.88272 112.36822 41108 ft 537 kts 140°
2026-05-05 20:46 -23.93073 112.43009 41139 ft 537 kts 140°
2026-05-05 20:46 -23.97903 112.49242 41110 ft 537 kts 140°
2026-05-05 20:47 -24.02733 112.55483 41118 ft 537 kts 140°
2026-05-05 20:47 -24.07563 112.61732 41117 ft 537 kts 140°
2026-05-05 20:48 -24.12386 112.67979 41122 ft 537 kts 140°
2026-05-05 20:48 -24.17205 112.74229 41140 ft 537 kts 140°
2026-05-05 20:49 -24.22023 112.80487 41124 ft 537 kts 140°
2026-05-05 20:49 -24.26841 112.86752 41129 ft 537 kts 140°
2026-05-05 20:50 -24.31652 112.93016 41130 ft 537 kts 140°
2026-05-05 20:50 -24.36457 112.99281 41135 ft 537 kts 140°
2026-05-05 20:51 -24.41266 113.05558 41135 ft 537 kts 140°
2026-05-05 20:51 -24.46070 113.11838 41147 ft 537 kts 140°
2026-05-05 20:52 -24.50867 113.18117 41139 ft 536 kts 140°
2026-05-05 20:52 -24.55633 113.24363 41144 ft 536 kts 140°
2026-05-05 20:53 -24.60423 113.30648 41145 ft 536 kts 140°
2026-05-05 20:53 -24.65211 113.36939 41153 ft 536 kts 140°
2026-05-05 20:54 -24.69997 113.43237 41161 ft 536 kts 140°
2026-05-05 20:54 -24.74778 113.49537 41161 ft 535 kts 140°
2026-05-05 20:55 -24.79546 113.55826 41143 ft 535 kts 140°
2026-05-05 20:55 -24.84283 113.62083 41147 ft 535 kts 140°
2026-05-05 20:56 -24.89351 113.67917 41190 ft 515 kts 153°
2026-05-05 20:56 -24.95073 113.72568 41158 ft 508 kts 156°
2026-05-05 20:57 -25.00884 113.76978 41166 ft 506 kts 156°
2026-05-05 20:57 -25.06708 113.81360 41162 ft 506 kts 156°
2026-05-05 20:58 -25.12517 113.85761 41168 ft 507 kts 156°
2026-05-05 20:58 -25.18280 113.90152 41169 ft 507 kts 155°
2026-05-05 20:59 -25.24084 113.94586 41170 ft 507 kts 155°
2026-05-05 20:59 -25.29882 113.99021 41176 ft 507 kts 155°
2026-05-05 21:00 -25.35677 114.03456 41178 ft 507 kts 155°
2026-05-05 21:00 -25.41472 114.07897 41198 ft 507 kts 155°
2026-05-05 21:01 -25.47256 114.12336 41181 ft 506 kts 155°
2026-05-05 21:01 -25.53043 114.16780 41183 ft 506 kts 155°
2026-05-05 21:02 -25.58828 114.21230 41183 ft 506 kts 155°
2026-05-05 21:02 -25.64627 114.25694 41186 ft 506 kts 155°
2026-05-05 21:03 -25.70368 114.30120 41194 ft 506 kts 155°
2026-05-05 21:03 -25.76150 114.34583 41192 ft 506 kts 155°
2026-05-05 21:04 -25.81932 114.39051 41196 ft 506 kts 155°
2026-05-05 21:04 -25.87713 114.43524 41191 ft 506 kts 155°
2026-05-05 21:05 -25.93488 114.47999 41191 ft 506 kts 154°
2026-05-05 21:05 -25.99265 114.52480 41194 ft 506 kts 154°
2026-05-05 21:06 -26.05000 114.56933 41205 ft 506 kts 154°
2026-05-05 21:06 -26.10765 114.61415 41206 ft 506 kts 154°
2026-05-05 21:07 -26.16532 114.65904 41217 ft 505 kts 154°
2026-05-05 21:07 -26.22298 114.70399 41209 ft 505 kts 154°
2026-05-05 21:08 -26.28054 114.74891 41211 ft 505 kts 154°
2026-05-05 21:08 -26.33811 114.79389 41219 ft 505 kts 154°
2026-05-05 21:09 -26.39575 114.83898 41242 ft 505 kts 153°
2026-05-05 21:09 -26.45324 114.88401 41226 ft 505 kts 153°
2026-05-05 21:10 -26.51034 114.92879 41226 ft 505 kts 153°
2026-05-05 21:10 -26.56783 114.97394 41229 ft 505 kts 153°
2026-05-05 21:11 -26.62526 115.01909 41235 ft 505 kts 153°
2026-05-05 21:11 -26.68267 115.06429 41247 ft 504 kts 153°
2026-05-05 21:12 -26.73996 115.10944 41233 ft 504 kts 153°
2026-05-05 21:12 -26.79738 115.15476 41240 ft 504 kts 153°
2026-05-05 21:13 -26.85468 115.20004 41241 ft 504 kts 153°
2026-05-05 21:13 -26.91195 115.24535 41250 ft 504 kts 152°
2026-05-05 21:14 -26.96878 115.29037 41256 ft 504 kts 152°
2026-05-05 21:14 -27.02600 115.33575 41259 ft 504 kts 152°
2026-05-05 21:15 -27.08320 115.38118 41262 ft 504 kts 152°
2026-05-05 21:15 -27.14073 115.42693 41266 ft 503 kts 152°
2026-05-05 21:16 -27.19752 115.47215 41265 ft 503 kts 152°
2026-05-05 21:16 -27.25462 115.51768 41265 ft 503 kts 152°
2026-05-05 21:17 -27.31175 115.56328 41271 ft 503 kts 152°
2026-05-05 21:17 -27.36857 115.60830 41275 ft 500 kts 155°
2026-05-05 21:18 -27.42885 115.64596 41281 ft 493 kts 160°
2026-05-05 21:18 -27.48985 115.68118 41282 ft 493 kts 161°
2026-05-05 21:19 -27.55111 115.71605 41281 ft 493 kts 161°
2026-05-05 21:19 -27.61239 115.75106 41288 ft 492 kts 160°
2026-05-05 21:20 -27.67345 115.78612 41287 ft 492 kts 160°
2026-05-05 21:20 -27.73445 115.82123 41292 ft 492 kts 160°
2026-05-05 21:21 -27.79548 115.85640 41292 ft 492 kts 160°
2026-05-05 21:21 -27.85644 115.89157 41299 ft 492 kts 160°
2026-05-05 21:22 -27.91741 115.92680 41295 ft 492 kts 160°
2026-05-05 21:22 -27.97807 115.96189 41302 ft 492 kts 160°
2026-05-05 21:23 -28.03898 115.99716 41309 ft 492 kts 160°
2026-05-05 21:23 -28.09987 116.03247 41309 ft 492 kts 160°
2026-05-05 21:24 -28.16091 116.06791 41309 ft 492 kts 160°
2026-05-05 21:24 -28.22183 116.10333 41310 ft 492 kts 160°
2026-05-05 21:25 -28.28270 116.13877 41311 ft 492 kts 160°
2026-05-05 21:25 -28.34361 116.17427 41319 ft 492 kts 160°
2026-05-05 21:26 -28.40442 116.20977 41318 ft 492 kts 160°
2026-05-05 21:26 -28.46483 116.24508 41318 ft 492 kts 160°
2026-05-05 21:27 -28.52570 116.28069 41326 ft 492 kts 160°
2026-05-05 21:27 -28.58651 116.31633 41323 ft 491 kts 159°
2026-05-05 21:28 -28.64740 116.35205 41327 ft 491 kts 159°
2026-05-05 21:28 -28.70814 116.38773 41334 ft 491 kts 159°
2026-05-05 21:29 -28.76889 116.42347 41332 ft 491 kts 159°
2026-05-05 21:29 -28.82925 116.45902 41337 ft 491 kts 159°
2026-05-05 21:30 -28.89000 116.49486 41337 ft 491 kts 159°
2026-05-05 21:30 -28.95065 116.53067 41342 ft 491 kts 159°
2026-05-05 21:31 -29.00107 116.56049 41340 ft 491 kts 159°
2026-05-05 21:31 -29.06165 116.59635 41345 ft 490 kts 159°
2026-05-05 21:32 -29.12222 116.63227 41342 ft 490 kts 159°
2026-05-05 21:32 -29.18494 116.66011 41353 ft 477 kts 173°
2026-05-05 21:33 -29.24980 116.66709 41371 ft 465 kts 185°
2026-05-05 21:33 -29.31444 116.66611 41355 ft 464 kts 187°
2026-05-05 21:34 -29.37903 116.66386 41351 ft 464 kts 187°
2026-05-05 21:34 -29.44370 116.66177 41355 ft 465 kts 187°
2026-05-05 21:35 -29.50837 116.65995 41358 ft 465 kts 187°
2026-05-05 21:35 -29.57302 116.65823 41355 ft 465 kts 186°
2026-05-05 21:36 -29.63736 116.65652 41364 ft 465 kts 186°
2026-05-05 21:36 -29.70220 116.65480 41369 ft 465 kts 186°
2026-05-05 21:37 -29.76690 116.65306 41368 ft 465 kts 186°
2026-05-05 21:37 -29.83167 116.65132 41366 ft 465 kts 186°
2026-05-05 21:38 -29.89648 116.64958 41368 ft 466 kts 186°
2026-05-05 21:38 -29.96089 116.64784 41368 ft 466 kts 186°
2026-05-05 21:39 -30.02574 116.64610 41370 ft 466 kts 186°
2026-05-05 21:39 -30.09058 116.64435 41374 ft 466 kts 186°
2026-05-05 21:40 -30.15540 116.64259 41376 ft 466 kts 186°
2026-05-05 21:40 -30.22027 116.64084 41379 ft 466 kts 186°
2026-05-05 21:41 -30.28511 116.63908 41396 ft 466 kts 186°
2026-05-05 21:41 -30.34998 116.63732 41380 ft 466 kts 186°
2026-05-05 21:42 -30.41435 116.63557 41379 ft 466 kts 186°
2026-05-05 21:42 -30.47928 116.63381 41379 ft 466 kts 186°
2026-05-05 21:43 -30.54383 116.62987 41388 ft 462 kts 193°
2026-05-05 21:43 -30.60551 116.61176 41388 ft 456 kts 201°
2026-05-05 21:44 -30.66589 116.58886 41385 ft 456 kts 202°
2026-05-05 21:44 -30.72603 116.56511 41384 ft 456 kts 202°
2026-05-05 21:45 -30.78614 116.54143 41387 ft 456 kts 202°
2026-05-05 21:45 -30.84599 116.51810 40714 ft 452 kts 202°
2026-05-05 21:46 -30.87598 116.50638 39860 ft 457 kts 201°
2026-05-05 21:46 -30.90591 116.49465 39032 ft 462 kts 201°
2026-05-05 21:46 -30.93654 116.48265 38039 ft 466 kts 201°
2026-05-05 21:46 -30.96738 116.47057 37085 ft 469 kts 201°
2026-05-05 21:47 -30.99834 116.45845 36287 ft 470 kts 201°
2026-05-05 21:47 -31.02937 116.44631 35544 ft 470 kts 201°
2026-05-05 21:47 -31.06037 116.43421 34739 ft 471 kts 200°
2026-05-05 21:47 -31.09162 116.42195 33809 ft 474 kts 200°
2026-05-05 21:48 -31.12296 116.40963 32905 ft 475 kts 200°
2026-05-05 21:48 -31.15433 116.39730 32000 ft 477 kts 200°
2026-05-05 21:48 -31.18584 116.38490 31086 ft 479 kts 200°
2026-05-05 21:48 -31.21753 116.37243 30071 ft 482 kts 199°
2026-05-05 21:49 -31.24944 116.35987 29071 ft 483 kts 199°
2026-05-05 21:49 -31.28107 116.34742 28408 ft 477 kts 199°
2026-05-05 21:49 -31.31235 116.33509 27733 ft 472 kts 199°
2026-05-05 21:49 -31.34337 116.32286 27045 ft 467 kts 199°
2026-05-05 21:50 -31.37408 116.31074 26364 ft 464 kts 199°
2026-05-05 21:50 -31.40448 116.29854 25674 ft 460 kts 201°
2026-05-05 21:50 -31.43308 116.28336 24991 ft 456 kts 208°
2026-05-05 21:50 -31.46092 116.26591 24300 ft 452 kts 209°
2026-05-05 21:51 -31.48842 116.24825 23568 ft 449 kts 209°
2026-05-05 21:51 -31.51568 116.23072 22865 ft 443 kts 209°
2026-05-05 21:51 -31.54255 116.21346 22196 ft 438 kts 209°
2026-05-05 21:51 -31.56913 116.19641 21541 ft 432 kts 209°
2026-05-05 21:52 -31.62132 116.16292 20200 ft 423 kts 208°
2026-05-05 21:52 -31.64709 116.14639 19496 ft 420 kts 208°
2026-05-05 21:52 -31.67259 116.13000 18812 ft 417 kts 208°
2026-05-05 21:53 -31.69764 116.11390 18069 ft 413 kts 208°
2026-05-05 21:53 -31.72269 116.09779 17377 ft 409 kts 208°
2026-05-05 21:53 -31.74789 116.08268 16682 ft 403 kts 202°
2026-05-05 21:53 -31.77465 116.07339 15995 ft 398 kts 191°
2026-05-05 21:54 -31.80175 116.06746 15312 ft 394 kts 188°
2026-05-05 21:54 -31.82898 116.06635 14639 ft 390 kts 174°
2026-05-05 21:54 -31.85512 116.07404 13939 ft 387 kts 159°
2026-05-05 21:54 -31.87982 116.08615 13228 ft 383 kts 156°
2026-05-05 21:55 -31.90407 116.09876 12553 ft 378 kts 156°
2026-05-05 21:55 -31.92798 116.11117 11889 ft 373 kts 156°
2026-05-05 21:55 -31.95163 116.12336 11284 ft 367 kts 156°
2026-05-05 21:55 -31.97447 116.13511 11145 ft 349 kts 156°
2026-05-05 21:56 -31.99637 116.14548 11050 ft 330 kts 160°
2026-05-05 21:56 -32.01741 116.15455 10946 ft 314 kts 160°
2026-05-05 21:56 -32.03741 116.16317 10840 ft 298 kts 160°
2026-05-05 21:56 -32.05644 116.17130 10729 ft 284 kts 161°
2026-05-05 21:57 -32.07518 116.17538 10612 ft 272 kts 179°
2026-05-05 21:57 -32.09354 116.17275 10489 ft 261 kts 191°
2026-05-05 21:57 -32.11122 116.16802 10192 ft 264 kts 192°
2026-05-05 21:57 -32.12959 116.16287 9939 ft 277 kts 192°
2026-05-05 21:58 -32.14843 116.15761 9754 ft 277 kts 192°
2026-05-05 21:58 -32.16707 116.15188 9234 ft 279 kts 197°
2026-05-05 21:58 -32.18376 116.14039 8800 ft 280 kts 220°
2026-05-05 21:58 -32.19464 116.12138 8436 ft 283 kts 247°
2026-05-05 21:59 -32.19800 116.09837 8077 ft 286 kts 265°
2026-05-05 21:59 -32.19836 116.07493 7715 ft 286 kts 268°
2026-05-05 21:59 -32.19842 116.05148 7354 ft 285 kts 267°
2026-05-05 21:59 -32.19779 116.02811 7017 ft 286 kts 275°
2026-05-05 22:00 -32.19377 116.00518 6690 ft 285 kts 282°
2026-05-05 22:00 -32.18873 115.98255 6372 ft 283 kts 282°
2026-05-05 22:00 -32.18376 115.96057 6237 ft 270 kts 282°
2026-05-05 22:00 -32.17905 115.93949 6067 ft 263 kts 283°
2026-05-05 22:01 -32.17449 115.91880 5797 ft 259 kts 283°
2026-05-05 22:01 -32.16872 115.89858 5372 ft 262 kts 297°
2026-05-05 22:01 -32.15864 115.88105 5029 ft 261 kts 308°
2026-05-05 22:01 -32.14726 115.86443 4643 ft 260 kts 309°
2026-05-05 22:02 -32.13589 115.84807 4361 ft 256 kts 310°
2026-05-05 22:02 -32.12466 115.83184 4057 ft 253 kts 310°
2026-05-05 22:02 -32.11302 115.81666 3806 ft 246 kts 322°
2026-05-05 22:02 -32.09822 115.80829 3699 ft 230 kts 351°
2026-05-05 22:03 -32.08282 115.80562 3620 ft 218 kts 356°
2026-05-05 22:03 -32.06814 115.80387 3526 ft 206 kts 357°
2026-05-05 22:03 -32.05431 115.80225 3434 ft 194 kts 356°
2026-05-05 22:03 -32.04097 115.80066 3266 ft 192 kts 357°
2026-05-05 22:04 -32.02792 115.80135 3136 ft 188 kts 24°
2026-05-05 22:04 -32.01758 115.81031 2984 ft 185 kts 49°
2026-05-05 22:04 -32.01069 115.82289 2729 ft 182 kts 62°
2026-05-05 22:04 -32.00448 115.83561 2478 ft 175 kts 59°
2026-05-05 22:05 -31.99828 115.84741 2220 ft 164 kts 59°
2026-05-05 22:05 -31.99263 115.85842 2016 ft 151 kts 60°
2026-05-05 22:05 -31.98738 115.86869 1825 ft 143 kts 60°
2026-05-05 22:05 -31.98240 115.87838 1639 ft 134 kts 61°
2026-05-05 22:06 -31.97778 115.88741 1453 ft 123 kts 61°
2026-05-05 22:06 -31.97348 115.89578 1309 ft 118 kts 62°
2026-05-05 22:06 -31.96933 115.90390 1147 ft 118 kts 62°
2026-05-05 22:06 -31.96510 115.91216 1000 ft 118 kts 62°
2026-05-05 22:07 -31.96080 115.92054 825 ft 120 kts 62°
2026-05-05 22:07 -31.95643 115.92907 677 ft 123 kts 61°
2026-05-05 22:07 -31.95198 115.93775 506 ft 125 kts 62°
2026-05-05 22:07 -31.94749 115.94651 358 ft 125 kts 61°
2026-05-05 22:08 -31.94299 115.95523 228 ft 127 kts 60°
2026-05-05 22:08 -31.93828 115.96437 87 ft 130 kts 60°
2026-05-05 22:08 -31.93421 115.97237 65 ft 74 kts 58°
2026-05-05 22:08 -31.93259 115.97552 71 ft 30 kts 59°
2026-05-05 22:09 -31.93187 115.97695 65 ft 20 kts 59°
2026-05-05 22:09 -31.93107 115.97778 70 ft 5 kts 348°
2026-05-05 22:09 -31.93058 115.97686 67 ft 22 kts 286°
2026-05-05 22:09 -31.93013 115.97473 66 ft 32 kts 283°
2026-05-05 22:10 -31.92964 115.97224 65 ft 16 kts 270°
2026-05-05 22:10 -31.93062 115.97139 66 ft 23 kts 195°
2026-05-05 22:10 -31.93249 115.97084 69 ft 32 kts 194°
2026-05-05 22:10 -31.93520 115.97006 64 ft 47 kts 194°
2026-05-05 22:11 -31.93723 115.96947 67 ft 28 kts 194°
2026-05-05 22:11 -31.93890 115.96927 65 ft 21 kts 146°
2026-05-05 22:11 -31.93941 115.97076 74 ft 20 kts 103°
2026-05-05 22:11 -31.93987 115.97137 66 ft 8 kts 175°
2026-05-05 22:12 -31.94048 115.97121 68 ft 10 kts 194°
2026-05-05 22:12 -31.94053 115.97119 62 ft 0 kts 194°